Wetterdaten: Mittwoch, 24.04.2019
Datum Zeit Temp. Aussen Temp. o. S. +5cm Feuchte Auss Luftdruck Regen Sonnenschein Regendauer Solar Windben Empfang
24.04.2019 00:00 17,2 C 16,1 C 15,6 C 64 % 994,9 hPa 0,0 l/m 0 min 0 min 0 W/m 12,9 km/h (3 Bft) 93,62 %
24.04.2019 00:02 17,2 C 16,1 C 15,6 C 64 % 994,9 hPa 0,0 l/m 0 min 0 min 0 W/m 9,7 km/h (2 Bft) 9,52 %
24.04.2019 00:04 17,1 C 16,1 C 15,6 C 64 % 995,0 hPa 0,0 l/m 0 min 0 min 0 W/m 9,7 km/h (2 Bft) 92,31 %
24.04.2019 00:08 17,1 C 16,1 C 15,6 C 64 % 995,0 hPa 0,0 l/m 0 min 0 min 0 W/m 12,9 km/h (3 Bft) 96,34 %
24.04.2019 00:10 17,1 C 16,1 C 15,6 C 64 % 995,0 hPa 0,0 l/m 0 min 0 min 0 W/m 9,7 km/h (2 Bft) 95,74 %
24.04.2019 00:12 17,1 C 16,1 C 15,6 C 64 % 995,0 hPa 0,0 l/m 0 min 0 min 0 W/m 9,7 km/h (2 Bft) 95,65 %
24.04.2019 00:14 17,1 C 16,1 C 15,6 C 64 % 995,0 hPa 0,0 l/m 0 min 0 min 0 W/m 12,9 km/h (3 Bft) 95,74 %
24.04.2019 00:16 17,0 C 16,1 C 15,6 C 64 % 995,0 hPa 0,0 l/m 0 min 0 min 0 W/m 9,7 km/h (2 Bft) 95,74 %
24.04.2019 00:18 17,0 C 16,1 C 15,6 C 64 % 995,0 hPa 0,0 l/m 0 min 0 min 0 W/m 9,7 km/h (2 Bft) 95,74 %
24.04.2019 00:20 17,0 C 16,1 C 15,0 C 64 % 995,0 hPa 0,0 l/m 0 min 0 min 0 W/m 12,9 km/h (3 Bft) 95,74 %
24.04.2019 00:22 16,9 C 16,1 C 15,0 C 64 % 995,0 hPa 0,0 l/m 0 min 0 min 0 W/m 9,7 km/h (2 Bft) 93,62 %
24.04.2019 00:24 16,9 C 16,1 C 15,6 C 64 % 995,0 hPa 0,0 l/m 0 min 0 min 0 W/m 16,1 km/h (3 Bft) 95,65 %
24.04.2019 00:26 16,9 C 16,1 C 15,0 C 64 % 995,1 hPa 0,0 l/m 0 min 0 min 0 W/m 9,7 km/h (2 Bft) 95,74 %
24.04.2019 00:28 16,9 C 16,1 C 15,6 C 64 % 995,1 hPa 0,0 l/m 0 min 0 min 0 W/m 9,7 km/h (2 Bft) 95,74 %
24.04.2019 00:30 16,9 C 15,6 C 15,6 C 65 % 995,0 hPa 0,0 l/m 0 min 0 min 0 W/m 9,7 km/h (2 Bft) 95,74 %
24.04.2019 00:32 16,9 C 15,6 C 15,0 C 65 % 995,1 hPa 0,0 l/m 0 min 0 min 0 W/m 9,7 km/h (2 Bft) 97,87 %
24.04.2019 00:34 16,9 C 15,6 C 15,0 C 65 % 995,1 hPa 0,0 l/m 0 min 0 min 0 W/m 6,4 km/h (2 Bft) 100,00 %
24.04.2019 00:36 16,9 C 15,6 C 15,0 C 65 % 995,1 hPa 0,0 l/m 0 min 0 min 0 W/m 9,7 km/h (2 Bft) 97,83 %
24.04.2019 00:38 16,9 C 15,6 C 15,0 C 65 % 995,1 hPa 0,0 l/m 0 min 0 min 0 W/m 3,2 km/h (1 Bft) 100,00 %
24.04.2019 00:40 16,8 C 15,6 C 15,0 C 65 % 995,1 hPa 0,0 l/m 0 min 0 min 0 W/m 9,7 km/h (2 Bft) 100,00 %
24.04.2019 00:42 16,8 C 15,6 C 15,0 C 65 % 995,1 hPa 0,0 l/m 0 min 0 min 0 W/m 12,9 km/h (3 Bft) 100,00 %
24.04.2019 00:44 16,8 C 15,6 C 15,0 C 65 % 995,1 hPa 0,0 l/m 0 min 0 min 0 W/m 9,7 km/h (2 Bft) 95,74 %
24.04.2019 00:46 16,8 C 15,6 C 15,0 C 65 % 995,1 hPa 0,0 l/m 0 min 0 min 0 W/m 12,9 km/h (3 Bft) 100,00 %
24.04.2019 00:48 16,7 C 15,6 C 15,0 C 65 % 995,1 hPa 0,0 l/m 0 min 0 min 0 W/m 9,7 km/h (2 Bft) 100,00 %
24.04.2019 00:50 16,7 C 15,6 C 15,0 C 65 % 995,1 hPa 0,0 l/m 0 min 0 min 0 W/m 12,9 km/h (3 Bft) 100,00 %
24.04.2019 00:52 16,7 C 15,6 C 15,0 C 65 % 995,1 hPa 0,0 l/m 0 min 0 min 0 W/m 9,7 km/h (2 Bft) 100,00 %
24.04.2019 00:54 16,7 C 15,6 C 15,0 C 65 % 995,1 hPa 0,0 l/m 0 min 0 min 0 W/m 9,7 km/h (2 Bft) 97,87 %
24.04.2019 00:56 16,7 C 15,6 C 15,0 C 65 % 995,1 hPa 0,0 l/m 0 min 0 min 0 W/m 9,7 km/h (2 Bft) 100,00 %
24.04.2019 00:58 16,7 C 15,6 C 15,0 C 65 % 995,1 hPa 0,0 l/m 0 min 0 min 0 W/m 9,7 km/h (2 Bft) 100,00 %
24.04.2019 01:00 16,6 C 15,6 C 15,0 C 65 % 995,2 hPa 0,0 l/m 0 min 0 min 0 W/m 16,1 km/h (3 Bft) 100,00 %
24.04.2019 01:02 16,6 C 15,6 C 15,0 C 65 % 995,1 hPa 0,0 l/m 0 min 0 min 0 W/m 9,7 km/h (2 Bft) 97,87 %
24.04.2019 01:04 16,6 C 15,6 C 15,0 C 65 % 995,1 hPa 0,0 l/m 0 min 0 min 0 W/m 12,9 km/h (3 Bft) 100,00 %
24.04.2019 01:06 16,6 C 15,6 C 15,0 C 66 % 995,1 hPa 0,0 l/m 0 min 0 min 0 W/m 12,9 km/h (3 Bft) 100,00 %
24.04.2019 01:08 16,6 C 15,6 C 15,0 C 66 % 995,1 hPa 0,0 l/m 0 min 0 min 0 W/m 9,7 km/h (2 Bft) 97,87 %
24.04.2019 01:10 16,6 C 15,6 C 15,0 C 66 % 995,1 hPa 0,0 l/m 0 min 0 min 0 W/m 9,7 km/h (2 Bft) 97,87 %
24.04.2019 01:12 16,6 C 15,6 C 15,0 C 66 % 995,1 hPa 0,0 l/m 0 min 0 min 0 W/m 9,7 km/h (2 Bft) 100,00 %
24.04.2019 01:14 16,5 C 15,6 C 15,0 C 66 % 995,1 hPa 0,0 l/m 0 min 0 min 0 W/m 9,7 km/h (2 Bft) 100,00 %
24.04.2019 01:16 16,5 C 15,6 C 15,0 C 66 % 995,2 hPa 0,0 l/m 0 min 0 min 0 W/m 9,7 km/h (2 Bft) 97,87 %
24.04.2019 01:18 16,5 C 15,6 C 15,0 C 66 % 995,2 hPa 0,0 l/m 0 min 0 min 0 W/m 6,4 km/h (2 Bft) 100,00 %
24.04.2019 01:20 16,5 C 15,6 C 15,0 C 66 % 995,1 hPa 0,0 l/m 0 min 0 min 0 W/m 9,7 km/h (2 Bft) 100,00 %
24.04.2019 01:22 16,5 C 15,6 C 15,0 C 66 % 995,1 hPa 0,0 l/m 0 min 0 min 0 W/m 9,7 km/h (2 Bft) 100,00 %
24.04.2019 01:24 16,4 C 15,6 C 15,0 C 66 % 995,1 hPa 0,0 l/m 0 min 0 min 0 W/m 9,7 km/h (2 Bft) 97,87 %
24.04.2019 01:26 16,4 C 15,6 C 15,0 C 66 % 995,2 hPa 0,0 l/m 0 min 0 min 0 W/m 9,7 km/h (2 Bft) 100,00 %
24.04.2019 01:28 16,4 C 15,6 C 15,0 C 66 % 995,1 hPa 0,0 l/m 0 min 0 min 0 W/m 16,1 km/h (3 Bft) 95,74 %
24.04.2019 01:30 16,4 C 15,6 C 15,0 C 66 % 995,1 hPa 0,0 l/m 0 min 0 min 0 W/m 9,7 km/h (2 Bft) 93,62 %
24.04.2019 01:32 16,4 C 15,6 C 15,0 C 66 % 995,1 hPa 0,0 l/m 0 min 0 min 0 W/m 6,4 km/h (2 Bft) 97,87 %
24.04.2019 01:34 16,4 C 15,6 C 15,0 C 66 % 995,2 hPa 0,0 l/m 0 min 0 min 0 W/m 6,4 km/h (2 Bft) 95,65 %
24.04.2019 01:36 16,4 C 15,6 C 15,0 C 66 % 995,2 hPa 0,0 l/m 0 min 0 min 0 W/m 6,4 km/h (2 Bft) 97,87 %
24.04.2019 01:38 16,4 C 15,6 C 15,0 C 66 % 995,1 hPa 0,0 l/m 0 min 0 min 0 W/m 9,7 km/h (2 Bft) 97,87 %
24.04.2019 01:40 16,3 C 15,6 C 15,0 C 67 % 995,2 hPa 0,0 l/m 0 min 0 min 0 W/m 12,9 km/h (3 Bft) 97,87 %
24.04.2019 01:42 16,3 C 15,6 C 15,0 C 67 % 995,1 hPa 0,0 l/m 0 min 0 min 0 W/m 12,9 km/h (3 Bft) 95,74 %
24.04.2019 01:44 16,3 C 15,6 C 14,4 C 67 % 995,1 hPa 0,0 l/m 0 min 0 min 0 W/m 6,4 km/h (2 Bft) 95,74 %
24.04.2019 01:46 16,3 C 15,0 C 14,4 C 67 % 995,1 hPa 0,0 l/m 0 min 0 min 0 W/m 6,4 km/h (2 Bft) 97,83 %
24.04.2019 01:48 16,3 C 15,0 C 14,4 C 67 % 995,1 hPa 0,0 l/m 0 min 0 min 0 W/m 9,7 km/h (2 Bft) 97,87 %
24.04.2019 01:50 16,3 C 15,0 C 14,4 C 67 % 995,2 hPa 0,0 l/m 0 min 0 min 0 W/m 6,4 km/h (2 Bft) 97,87 %
24.04.2019 01:52 16,3 C 15,0 C 14,4 C 67 % 995,1 hPa 0,0 l/m 0 min 0 min 0 W/m 9,7 km/h (2 Bft) 95,74 %
24.04.2019 01:54 16,3 C 15,0 C 14,4 C 67 % 995,1 hPa 0,0 l/m 0 min 0 min 0 W/m 9,7 km/h (2 Bft) 97,87 %
24.04.2019 01:56 16,2 C 15,0 C 14,4 C 67 % 995,1 hPa 0,0 l/m 0 min 0 min 0 W/m 9,7 km/h (2 Bft) 97,87 %
24.04.2019 01:58 16,2 C 15,0 C 14,4 C 67 % 995,1 hPa 0,0 l/m 0 min 0 min 0 W/m 6,4 km/h (2 Bft) 97,83 %
24.04.2019 02:00 16,2 C 15,0 C 14,4 C 67 % 995,1 hPa 0,0 l/m 0 min 0 min 0 W/m 6,4 km/h (2 Bft) 97,87 %
24.04.2019 02:02 16,2 C 15,0 C 14,4 C 67 % 995,1 hPa 0,0 l/m 0 min 0 min 0 W/m 6,4 km/h (2 Bft) 97,87 %
24.04.2019 02:04 16,2 C 15,0 C 13,9 C 67 % 995,2 hPa 0,0 l/m 0 min 0 min 0 W/m 6,4 km/h (2 Bft) 97,87 %
24.04.2019 02:06 16,2 C 15,0 C 14,4 C 67 % 995,2 hPa 0,0 l/m 0 min 0 min 0 W/m 6,4 km/h (2 Bft) 97,87 %
24.04.2019 02:08 16,1 C 15,0 C 13,9 C 68 % 995,2 hPa 0,0 l/m 0 min 0 min 0 W/m 9,7 km/h (2 Bft) 97,87 %
24.04.2019 02:10 16,1 C 15,0 C 14,4 C 68 % 995,1 hPa 0,0 l/m 0 min 0 min 0 W/m 6,4 km/h (2 Bft) 93,48 %
24.04.2019 02:12 16,1 C 15,0 C 14,4 C 68 % 995,2 hPa 0,0 l/m 0 min 0 min 0 W/m 6,4 km/h (2 Bft) 97,87 %
24.04.2019 02:14 16,1 C 15,0 C 13,9 C 68 % 995,2 hPa 0,0 l/m 0 min 0 min 0 W/m 6,4 km/h (2 Bft) 97,87 %
24.04.2019 02:16 16,1 C 14,4 C 13,9 C 68 % 995,1 hPa 0,0 l/m 0 min 0 min 0 W/m 6,4 km/h (2 Bft) 95,74 %
24.04.2019 02:18 16,0 C 14,4 C 13,9 C 68 % 995,1 hPa 0,0 l/m 0 min 0 min 0 W/m 6,4 km/h (2 Bft) 93,62 %
24.04.2019 02:20 16,0 C 15,0 C 13,9 C 68 % 995,2 hPa 0,0 l/m 0 min 0 min 0 W/m 6,4 km/h (2 Bft) 97,87 %
24.04.2019 02:22 16,0 C 15,0 C 13,9 C 68 % 995,2 hPa 0,0 l/m 0 min 0 min 0 W/m 9,7 km/h (2 Bft) 97,83 %
24.04.2019 02:24 15,9 C 15,0 C 13,9 C 68 % 995,2 hPa 0,0 l/m 0 min 0 min 0 W/m 6,4 km/h (2 Bft) 95,74 %
24.04.2019 02:26 15,9 C 14,4 C 13,9 C 68 % 995,2 hPa 0,0 l/m 0 min 0 min 0 W/m 6,4 km/h (2 Bft) 95,74 %
24.04.2019 02:28 15,9 C 14,4 C 13,9 C 68 % 995,2 hPa 0,0 l/m 0 min 0 min 0 W/m 12,9 km/h (3 Bft) 95,74 %
24.04.2019 02:30 15,9 C 14,4 C 13,9 C 68 % 995,2 hPa 0,0 l/m 0 min 0 min 0 W/m 9,7 km/h (2 Bft) 95,74 %
24.04.2019 02:32 15,8 C 14,4 C 13,9 C 68 % 995,2 hPa 0,0 l/m 0 min 0 min 0 W/m 9,7 km/h (2 Bft) 95,74 %
24.04.2019 02:34 15,8 C 14,4 C 13,9 C 68 % 995,1 hPa 0,0 l/m 0 min 0 min 0 W/m 6,4 km/h (2 Bft) 97,83 %
24.04.2019 02:36 15,8 C 14,4 C 13,9 C 68 % 995,1 hPa 0,0 l/m 0 min 0 min 0 W/m 9,7 km/h (2 Bft) 98,31 %
24.04.2019 02:38 15,8 C 14,4 C 13,9 C 69 % 995,1 hPa 0,0 l/m 0 min 0 min 0 W/m 6,4 km/h (2 Bft) 97,14 %
24.04.2019 02:40 15,7 C 14,4 C 13,9 C 69 % 995,1 hPa 0,0 l/m 0 min 0 min 0 W/m 9,7 km/h (2 Bft) 95,74 %
24.04.2019 02:42 15,7 C 14,4 C 13,9 C 69 % 995,2 hPa 0,0 l/m 0 min 0 min 0 W/m 12,9 km/h (3 Bft) 93,62 %
24.04.2019 02:44 15,7 C 14,4 C 13,9 C 69 % 995,2 hPa 0,0 l/m 0 min 0 min 0 W/m 9,7 km/h (2 Bft) 93,62 %
24.04.2019 02:46 15,7 C 14,4 C 13,9 C 69 % 995,2 hPa 0,0 l/m 0 min 0 min 0 W/m 9,7 km/h (2 Bft) 95,65 %
24.04.2019 02:48 15,7 C 14,4 C 13,9 C 69 % 995,2 hPa 0,0 l/m 0 min 0 min 0 W/m 9,7 km/h (2 Bft) 95,74 %
24.04.2019 02:50 15,6 C 14,4 C 13,9 C 69 % 995,2 hPa 0,0 l/m 0 min 0 min 0 W/m 9,7 km/h (2 Bft) 93,62 %
24.04.2019 02:52 15,6 C 14,4 C 13,9 C 69 % 995,2 hPa 0,0 l/m 0 min 0 min 0 W/m 9,7 km/h (2 Bft) 95,74 %
24.04.2019 02:54 15,6 C 14,4 C 13,9 C 69 % 995,2 hPa 0,0 l/m 0 min 0 min 0 W/m 6,4 km/h (2 Bft) 95,74 %
24.04.2019 02:56 15,6 C 14,4 C 13,9 C 69 % 995,1 hPa 0,0 l/m 0 min 0 min 0 W/m 6,4 km/h (2 Bft) 95,65 %
24.04.2019 02:58 15,6 C 14,4 C 13,9 C 69 % 995,2 hPa 0,0 l/m 0 min 0 min 0 W/m 9,7 km/h (2 Bft) 93,62 %
24.04.2019 03:00 15,5 C 14,4 C 13,9 C 70 % 995,2 hPa 0,0 l/m 0 min 0 min 0 W/m 9,7 km/h (2 Bft) 95,74 %
24.04.2019 03:02 15,5 C 14,4 C 13,3 C 70 % 995,2 hPa 0,0 l/m 0 min 0 min 0 W/m 16,1 km/h (3 Bft) 95,74 %
24.04.2019 03:04 15,4 C 14,4 C 13,3 C 70 % 995,2 hPa 0,0 l/m 0 min 0 min 0 W/m 9,7 km/h (2 Bft) 95,74 %
24.04.2019 03:06 15,4 C 13,9 C 13,3 C 70 % 995,2 hPa 0,0 l/m 0 min 0 min 0 W/m 6,4 km/h (2 Bft) 95,74 %
24.04.2019 03:08 15,4 C 14,4 C 13,3 C 70 % 995,2 hPa 0,0 l/m 0 min 0 min 0 W/m 9,7 km/h (2 Bft) 93,48 %
24.04.2019 03:10 15,4 C 14,4 C 13,3 C 70 % 995,3 hPa 0,0 l/m 0 min 0 min 0 W/m 9,7 km/h (2 Bft) 100,00 %
24.04.2019 03:12 15,3 C 14,4 C 13,3 C 70 % 995,3 hPa 0,0 l/m 0 min 0 min 0 W/m 6,4 km/h (2 Bft) 97,87 %
24.04.2019 03:14 15,3 C 13,9 C 13,3 C 71 % 995,3 hPa 0,0 l/m 0 min 0 min 0 W/m 9,7 km/h (2 Bft) 97,87 %
24.04.2019 03:16 15,3 C 13,9 C 13,3 C 71 % 995,3 hPa 0,0 l/m 0 min 0 min 0 W/m 6,4 km/h (2 Bft) 93,62 %
24.04.2019 03:18 15,3 C 13,9 C 13,3 C 71 % 995,3 hPa 0,0 l/m 0 min 0 min 0 W/m 9,7 km/h (2 Bft) 95,74 %
24.04.2019 03:20 15,2 C 13,9 C 13,3 C 71 % 995,3 hPa 0,0 l/m 0 min 0 min 0 W/m 12,9 km/h (3 Bft) 97,83 %
24.04.2019 03:22 15,2 C 13,9 C 13,3 C 71 % 995,3 hPa 0,0 l/m 0 min 0 min 0 W/m 9,7 km/h (2 Bft) 97,87 %
24.04.2019 03:24 15,2 C 13,9 C 13,3 C 71 % 995,4 hPa 0,0 l/m 0 min 0 min 0 W/m 12,9 km/h (3 Bft) 97,87 %
24.04.2019 03:26 15,2 C 13,9 C 13,3 C 71 % 995,4 hPa 0,0 l/m 0 min 0 min 0 W/m 6,4 km/h (2 Bft) 97,87 %
24.04.2019 03:28 15,2 C 13,9 C 13,3 C 71 % 995,3 hPa 0,0 l/m 0 min 0 min 0 W/m 16,1 km/h (3 Bft) 100,00 %
24.04.2019 03:30 15,1 C 13,9 C 13,3 C 71 % 995,3 hPa 0,0 l/m 0 min 0 min 0 W/m 9,7 km/h (2 Bft) 100,00 %
24.04.2019 03:32 15,1 C 13,9 C 13,3 C 71 % 995,4 hPa 0,0 l/m 0 min 0 min 0 W/m 9,7 km/h (2 Bft) 100,00 %
24.04.2019 03:34 15,1 C 13,9 C 13,3 C 71 % 995,3 hPa 0,0 l/m 0 min 0 min 0 W/m 16,1 km/h (3 Bft) 97,87 %
24.04.2019 03:36 15,1 C 13,9 C 13,3 C 71 % 995,4 hPa 0,0 l/m 0 min 0 min 0 W/m 6,4 km/h (2 Bft) 100,00 %
24.04.2019 03:38 15,1 C 13,9 C 13,3 C 71 % 995,4 hPa 0,0 l/m 0 min 0 min 0 W/m 9,7 km/h (2 Bft) 100,00 %
24.04.2019 03:40 15,1 C 13,9 C 13,3 C 71 % 995,4 hPa 0,0 l/m 0 min 0 min 0 W/m 6,4 km/h (2 Bft) 100,00 %
24.04.2019 03:42 15,0 C 13,9 C 13,3 C 72 % 995,4 hPa 0,0 l/m 0 min 0 min 0 W/m 6,4 km/h (2 Bft) 97,87 %
24.04.2019 03:44 15,0 C 13,9 C 13,3 C 72 % 995,5 hPa 0,0 l/m 0 min 0 min 0 W/m 12,9 km/h (3 Bft) 97,83 %
24.04.2019 03:46 15,0 C 13,9 C 13,3 C 72 % 995,4 hPa 0,0 l/m 0 min 0 min 0 W/m 9,7 km/h (2 Bft) 100,00 %
24.04.2019 03:48 15,0 C 14,4 C 13,9 C 72 % 995,4 hPa 0,0 l/m 0 min 0 min 0 W/m 9,7 km/h (2 Bft) 100,00 %
24.04.2019 03:50 15,0 C 14,4 C 13,9 C 72 % 995,4 hPa 0,0 l/m 0 min 0 min 0 W/m 9,7 km/h (2 Bft) 100,00 %
24.04.2019 03:52 14,9 C 14,4 C 13,9 C 72 % 995,4 hPa 0,0 l/m 0 min 0 min 0 W/m 9,7 km/h (2 Bft) 100,00 %
24.04.2019 03:54 14,9 C 14,4 C 13,9 C 72 % 995,5 hPa 0,0 l/m 0 min 0 min 0 W/m 9,7 km/h (2 Bft) 100,00 %
24.04.2019 03:56 14,9 C 14,4 C 13,9 C 72 % 995,4 hPa 0,0 l/m 0 min 0 min 0 W/m 19,3 km/h (3 Bft) 100,00 %
24.04.2019 03:58 14,9 C 14,4 C 13,9 C 72 % 995,5 hPa 0,0 l/m 0 min 0 min 0 W/m 16,1 km/h (3 Bft) 100,00 %
24.04.2019 04:00 15,0 C 14,4 C 13,9 C 72 % 995,4 hPa 0,0 l/m 0 min 0 min 0 W/m 12,9 km/h (3 Bft) 100,00 %
24.04.2019 04:05 15,0 C 14,4 C 13,9 C 72 % 995,5 hPa 0,0 l/m 0 min 0 min 0 W/m 16,1 km/h (3 Bft) 100,00 %
24.04.2019 04:06 15,0 C 14,4 C 13,9 C 72 % 995,5 hPa 0,0 l/m 0 min 0 min 0 W/m 6,4 km/h (2 Bft) 100,00 %
24.04.2019 04:08 15,1 C 14,4 C 13,9 C 72 % 995,5 hPa 0,0 l/m 0 min 0 min 0 W/m 9,7 km/h (2 Bft) 100,00 %
24.04.2019 04:10 15,1 C 14,4 C 13,9 C 72 % 995,5 hPa 0,0 l/m 0 min 0 min 0 W/m 12,9 km/h (3 Bft) 97,87 %
24.04.2019 04:15 15,1 C 14,4 C 13,9 C 72 % 995,5 hPa 0,0 l/m 0 min 0 min 0 W/m 12,9 km/h (3 Bft) 98,41 %
24.04.2019 04:16 15,2 C 14,4 C 13,9 C 72 % 995,5 hPa 0,0 l/m 0 min 0 min 0 W/m 12,9 km/h (3 Bft) 100,00 %
24.04.2019 04:18 15,2 C 14,4 C 13,9 C 72 % 995,6 hPa 0,0 l/m 0 min 0 min 0 W/m 16,1 km/h (3 Bft) 100,00 %
24.04.2019 04:20 15,2 C 14,4 C 13,9 C 72 % 995,7 hPa 0,0 l/m 0 min 0 min 0 W/m 9,7 km/h (2 Bft) 100,00 %
24.04.2019 04:22 15,2 C 14,4 C 13,9 C 72 % 995,7 hPa 0,0 l/m 0 min 0 min 0 W/m 12,9 km/h (3 Bft) 100,00 %
24.04.2019 04:24 15,2 C 14,4 C 13,9 C 72 % 995,6 hPa 0,0 l/m 0 min 0 min 0 W/m 12,9 km/h (3 Bft) 100,00 %
24.04.2019 04:26 15,3 C 14,4 C 13,9 C 72 % 995,7 hPa 0,0 l/m 0 min 0 min 0 W/m 9,7 km/h (2 Bft) 100,00 %
24.04.2019 04:28 15,3 C 14,4 C 13,9 C 72 % 995,6 hPa 0,0 l/m 0 min 0 min 0 W/m 9,7 km/h (2 Bft) 100,00 %
24.04.2019 04:30 15,3 C 14,4 C 13,9 C 72 % 995,7 hPa 0,0 l/m 0 min 0 min 0 W/m 9,7 km/h (2 Bft) 97,83 %
24.04.2019 04:32 15,3 C 14,4 C 13,9 C 72 % 995,7 hPa 0,0 l/m 0 min 0 min 0 W/m 6,4 km/h (2 Bft) 100,00 %
24.04.2019 04:34 15,3 C 14,4 C 13,9 C 72 % 995,7 hPa 0,0 l/m 0 min 0 min 0 W/m 9,7 km/h (2 Bft) 100,00 %
24.04.2019 04:36 15,3 C 14,4 C 13,9 C 72 % 995,7 hPa 0,0 l/m 0 min 0 min 0 W/m 9,7 km/h (2 Bft) 100,00 %
24.04.2019 04:38 15,3 C 15,0 C 13,9 C 72 % 995,7 hPa 0,0 l/m 0 min 0 min 0 W/m 9,7 km/h (2 Bft) 100,00 %
24.04.2019 04:40 15,3 C 14,4 C 13,9 C 72 % 995,7 hPa 0,0 l/m 0 min 0 min 0 W/m 9,7 km/h (2 Bft) 97,87 %
24.04.2019 04:42 15,4 C 14,4 C 13,9 C 72 % 995,7 hPa 0,0 l/m 0 min 0 min 0 W/m 6,4 km/h (2 Bft) 100,00 %
24.04.2019 04:44 15,4 C 14,4 C 13,9 C 72 % 995,7 hPa 0,0 l/m 0 min 0 min 0 W/m 9,7 km/h (2 Bft) 100,00 %
24.04.2019 04:46 15,4 C 14,4 C 13,9 C 72 % 995,7 hPa 0,0 l/m 0 min 0 min 0 W/m 9,7 km/h (2 Bft) 100,00 %
24.04.2019 04:48 15,4 C 14,4 C 13,9 C 72 % 995,6 hPa 0,0 l/m 0 min 0 min 0 W/m 12,9 km/h (3 Bft) 100,00 %
24.04.2019 04:50 15,4 C 15,0 C 14,4 C 72 % 995,7 hPa 0,0 l/m 0 min 0 min 0 W/m 12,9 km/h (3 Bft) 100,00 %
24.04.2019 04:52 15,4 C 15,0 C 14,4 C 72 % 995,7 hPa 0,0 l/m 0 min 0 min 0 W/m 9,7 km/h (2 Bft) 97,87 %
24.04.2019 04:54 15,4 C 15,0 C 14,4 C 72 % 995,7 hPa 0,0 l/m 0 min 0 min 0 W/m 6,4 km/h (2 Bft) 97,83 %
24.04.2019 04:56 15,4 C 15,0 C 13,9 C 72 % 995,7 hPa 0,0 l/m 0 min 0 min 0 W/m 9,7 km/h (2 Bft) 97,87 %
24.04.2019 04:58 15,4 C 15,0 C 13,9 C 72 % 995,7 hPa 0,0 l/m 0 min 0 min 0 W/m 9,7 km/h (2 Bft) 100,00 %
24.04.2019 05:00 15,4 C 15,0 C 14,4 C 72 % 995,7 hPa 0,0 l/m 0 min 0 min 0 W/m 9,7 km/h (2 Bft) 97,87 %
24.04.2019 05:02 15,4 C 15,0 C 14,4 C 72 % 995,7 hPa 0,0 l/m 0 min 0 min 0 W/m 9,7 km/h (2 Bft) 97,87 %
24.04.2019 05:04 15,4 C 15,0 C 14,4 C 72 % 995,7 hPa 0,0 l/m 0 min 0 min 0 W/m 9,7 km/h (2 Bft) 97,83 %
24.04.2019 05:05 15,4 C 15,0 C 14,4 C 72 % 995,8 hPa 0,0 l/m 0 min 0 min 0 W/m 9,7 km/h (2 Bft) 100,00 %
24.04.2019 05:10 15,5 C 15,0 C 14,4 C 72 % 995,8 hPa 0,0 l/m 0 min 0 min 0 W/m 9,7 km/h (2 Bft) 99,12 %
24.04.2019 05:12 15,5 C 15,0 C 14,4 C 72 % 995,8 hPa 0,0 l/m 0 min 0 min 0 W/m 9,7 km/h (2 Bft) 100,00 %
24.04.2019 05:14 15,5 C 15,0 C 14,4 C 72 % 995,8 hPa 0,0 l/m 0 min 0 min 0 W/m 9,7 km/h (2 Bft) 93,62 %
24.04.2019 05:16 15,5 C 15,0 C 14,4 C 72 % 995,7 hPa 0,0 l/m 0 min 0 min 0 W/m 6,4 km/h (2 Bft) 100,00 %
24.04.2019 05:18 15,6 C 15,0 C 14,4 C 72 % 995,7 hPa 0,0 l/m 0 min 0 min 0 W/m 9,7 km/h (2 Bft) 94,55 %
24.04.2019 05:20 15,6 C 15,0 C 14,4 C 71 % 995,7 hPa 0,0 l/m 0 min 0 min 0 W/m 6,4 km/h (2 Bft) 97,96 %
24.04.2019 05:22 15,6 C 15,0 C 14,4 C 71 % 995,8 hPa 0,0 l/m 0 min 0 min 0 W/m 9,7 km/h (2 Bft) 97,87 %
24.04.2019 05:24 15,6 C 15,0 C 14,4 C 71 % 995,8 hPa 0,0 l/m 0 min 0 min 0 W/m 9,7 km/h (2 Bft) 95,92 %
24.04.2019 05:26 15,6 C 15,0 C 14,4 C 71 % 995,9 hPa 0,0 l/m 0 min 0 min 0 W/m 9,7 km/h (2 Bft) 93,48 %
24.04.2019 05:28 15,6 C 15,0 C 14,4 C 71 % 995,9 hPa 0,0 l/m 0 min 0 min 0 W/m 6,4 km/h (2 Bft) 91,67 %
24.04.2019 05:30 15,6 C 15,0 C 14,4 C 71 % 996,0 hPa 0,0 l/m 0 min 0 min 0 W/m 9,7 km/h (2 Bft) 92,59 %
24.04.2019 05:32 15,6 C 15,0 C 14,4 C 71 % 995,9 hPa 0,0 l/m 0 min 0 min 0 W/m 9,7 km/h (2 Bft) 91,84 %
24.04.2019 05:34 15,6 C 15,0 C 14,4 C 71 % 995,9 hPa 0,0 l/m 0 min 0 min 0 W/m 6,4 km/h (2 Bft) 93,88 %
24.04.2019 05:36 15,7 C 15,0 C 14,4 C 71 % 995,9 hPa 0,0 l/m 0 min 0 min 0 W/m 9,7 km/h (2 Bft) 93,62 %
24.04.2019 05:38 15,7 C 15,0 C 14,4 C 71 % 995,9 hPa 0,0 l/m 0 min 0 min 0 W/m 9,7 km/h (2 Bft) 91,43 %
24.04.2019 05:40 15,7 C 15,0 C 14,4 C 71 % 995,9 hPa 0,0 l/m 0 min 0 min 0 W/m 9,7 km/h (2 Bft) 91,30 %
24.04.2019 05:42 15,7 C 15,0 C 14,4 C 71 % 995,9 hPa 0,0 l/m 0 min 0 min 0 W/m 12,9 km/h (3 Bft) 94,55 %
24.04.2019 05:44 15,7 C 15,0 C 14,4 C 71 % 996,0 hPa 0,0 l/m 0 min 0 min 0 W/m 12,9 km/h (3 Bft) 93,88 %
24.04.2019 05:46 15,7 C 15,0 C 14,4 C 71 % 996,0 hPa 0,0 l/m 0 min 0 min 0 W/m 12,9 km/h (3 Bft) 91,49 %
24.04.2019 05:48 15,7 C 15,0 C 14,4 C 71 % 996,0 hPa 0,0 l/m 0 min 0 min 0 W/m 16,1 km/h (3 Bft) 91,84 %
24.04.2019 05:50 15,7 C 15,0 C 14,4 C 71 % 996,0 hPa 0,0 l/m 0 min 0 min 0 W/m 9,7 km/h (2 Bft) 94,29 %
24.04.2019 05:52 15,7 C 15,0 C 14,4 C 70 % 996,0 hPa 0,0 l/m 0 min 0 min 0 W/m 12,9 km/h (3 Bft) 92,59 %
24.04.2019 05:54 15,8 C 15,0 C 14,4 C 70 % 996,0 hPa 0,0 l/m 0 min 0 min 0 W/m 9,7 km/h (2 Bft) 92,00 %
24.04.2019 05:56 15,8 C 15,0 C 14,4 C 71 % 996,0 hPa 0,0 l/m 0 min 0 min 0 W/m 9,7 km/h (2 Bft) 93,75 %
24.04.2019 05:58 15,8 C 15,0 C 14,4 C 71 % 996,0 hPa 0,0 l/m 0 min 0 min 0 W/m 6,4 km/h (2 Bft) 95,74 %
24.04.2019 06:00 15,8 C 15,0 C 14,4 C 70 % 996,0 hPa 0,0 l/m 0 min 0 min 0 W/m 12,9 km/h (3 Bft) 94,29 %
24.04.2019 06:02 15,8 C 15,0 C 14,4 C 70 % 996,0 hPa 0,0 l/m 0 min 0 min 0 W/m 9,7 km/h (2 Bft) 94,44 %
24.04.2019 06:04 15,8 C 15,0 C 14,4 C 70 % 996,0 hPa 0,0 l/m 0 min 0 min 0 W/m 9,7 km/h (2 Bft) 94,00 %
24.04.2019 06:08 15,8 C 15,6 C 14,4 C 70 % 996,0 hPa 0,0 l/m 0 min 0 min 0 W/m 22,5 km/h (4 Bft) 94,74 %
24.04.2019 06:10 15,9 C 15,0 C 14,4 C 70 % 996,1 hPa 0,0 l/m 0 min 0 min 0 W/m 12,9 km/h (3 Bft) 97,14 %
24.04.2019 06:12 15,9 C 15,0 C 14,4 C 70 % 996,0 hPa 0,0 l/m 0 min 0 min 0 W/m 9,7 km/h (2 Bft) 100,00 %
24.04.2019 06:14 15,9 C 15,0 C 14,4 C 70 % 996,1 hPa 0,0 l/m 0 min 0 min 0 W/m 9,7 km/h (2 Bft) 98,00 %
24.04.2019 06:16 15,9 C 15,0 C 14,4 C 70 % 996,0 hPa 0,0 l/m 0 min 0 min 0 W/m 9,7 km/h (2 Bft) 97,92 %
24.04.2019 06:18 15,9 C 15,0 C 14,4 C 70 % 996,1 hPa 0,0 l/m 0 min 0 min 0 W/m 6,4 km/h (2 Bft) 100,00 %
24.04.2019 06:20 15,9 C 15,0 C 14,4 C 70 % 996,1 hPa 0,0 l/m 0 min 0 min 0 W/m 16,1 km/h (3 Bft) 100,00 %
24.04.2019 06:22 15,9 C 15,0 C 14,4 C 70 % 996,1 hPa 0,0 l/m 0 min 0 min 0 W/m 9,7 km/h (2 Bft) 97,87 %
24.04.2019 06:24 15,9 C 15,0 C 14,4 C 70 % 996,1 hPa 0,0 l/m 0 min 0 min 0 W/m 12,9 km/h (3 Bft) 98,00 %
24.04.2019 06:26 15,9 C 15,0 C 14,4 C 70 % 996,2 hPa 0,0 l/m 0 min 0 min 0 W/m 9,7 km/h (2 Bft) 100,00 %
24.04.2019 06:28 15,9 C 15,0 C 14,4 C 70 % 996,1 hPa 0,0 l/m 0 min 0 min 0 W/m 9,7 km/h (2 Bft) 94,29 %
24.04.2019 06:30 15,9 C 15,0 C 14,4 C 70 % 996,3 hPa 0,0 l/m 0 min 0 min 0 W/m 9,7 km/h (2 Bft) 100,00 %
24.04.2019 06:32 15,9 C 15,0 C 14,4 C 70 % 996,2 hPa 0,0 l/m 0 min 0 min 0 W/m 12,9 km/h (3 Bft) 100,00 %
24.04.2019 06:34 15,9 C 15,0 C 14,4 C 70 % 996,2 hPa 0,0 l/m 0 min 0 min 0 W/m 9,7 km/h (2 Bft) 100,00 %
24.04.2019 06:36 15,9 C 15,0 C 14,4 C 70 % 996,2 hPa 0,0 l/m 0 min 0 min 0 W/m 12,9 km/h (3 Bft) 100,00 %
24.04.2019 06:38 15,9 C 15,0 C 14,4 C 70 % 996,2 hPa 0,0 l/m 0 min 2 min 0 W/m 6,4 km/h (2 Bft) 100,00 %
24.04.2019 06:40 15,9 C 15,0 C 14,4 C 70 % 996,2 hPa 0,0 l/m 0 min 2 min 2 W/m 9,7 km/h (2 Bft) 100,00 %
24.04.2019 06:42 15,9 C 15,0 C 14,4 C 70 % 996,3 hPa 0,0 l/m 0 min 0 min 5 W/m 9,7 km/h (2 Bft) 100,00 %
24.04.2019 06:44 15,9 C 15,0 C 14,4 C 70 % 996,3 hPa 0,0 l/m 0 min 0 min 6 W/m 12,9 km/h (3 Bft) 97,83 %
24.04.2019 06:46 15,9 C 15,0 C 14,4 C 70 % 996,3 hPa 0,0 l/m 0 min 0 min 9 W/m 12,9 km/h (3 Bft) 100,00 %
24.04.2019 06:48 15,9 C 15,0 C 14,4 C 70 % 996,3 hPa 0,0 l/m 0 min 0 min 11 W/m 9,7 km/h (2 Bft) 100,00 %
24.04.2019 06:50 15,9 C 15,0 C 14,4 C 70 % 996,3 hPa 0,0 l/m 0 min 0 min 12 W/m 9,7 km/h (2 Bft) 100,00 %
24.04.2019 06:52 15,9 C 15,0 C 14,4 C 70 % 996,3 hPa 0,0 l/m 0 min 0 min 15 W/m 9,7 km/h (2 Bft) 100,00 %
24.04.2019 06:54 15,9 C 15,0 C 14,4 C 70 % 996,3 hPa 0,0 l/m 0 min 0 min 16 W/m 9,7 km/h (2 Bft) 100,00 %
24.04.2019 06:56 15,9 C 15,0 C 14,4 C 70 % 996,3 hPa 0,0 l/m 0 min 0 min 18 W/m 9,7 km/h (2 Bft) 100,00 %
24.04.2019 06:58 15,9 C 15,0 C 14,4 C 70 % 996,3 hPa 0,0 l/m 0 min 0 min 18 W/m 9,7 km/h (2 Bft) 100,00 %
24.04.2019 07:00 15,9 C 15,0 C 14,4 C 70 % 996,4 hPa 0,0 l/m 0 min 0 min 20 W/m 9,7 km/h (2 Bft) 100,00 %
24.04.2019 07:02 15,8 C 15,0 C 14,4 C 70 % 996,4 hPa 0,0 l/m 0 min 0 min 21 W/m 9,7 km/h (2 Bft) 100,00 %
24.04.2019 07:04 15,8 C 15,0 C 14,4 C 70 % 996,4 hPa 0,0 l/m 0 min 0 min 24 W/m 9,7 km/h (2 Bft) 100,00 %
24.04.2019 07:06 15,8 C 15,0 C 14,4 C 70 % 996,4 hPa 0,0 l/m 0 min 0 min 25 W/m 9,7 km/h (2 Bft) 97,96 %
24.04.2019 07:08 15,8 C 15,0 C 14,4 C 70 % 996,4 hPa 0,0 l/m 0 min 0 min 25 W/m 12,9 km/h (3 Bft) 100,00 %
24.04.2019 07:10 15,8 C 15,0 C 14,4 C 70 % 996,4 hPa 0,0 l/m 0 min 0 min 26 W/m 12,9 km/h (3 Bft) 100,00 %
24.04.2019 07:12 15,8 C 15,6 C 14,4 C 70 % 996,4 hPa 0,0 l/m 0 min 0 min 27 W/m 12,9 km/h (3 Bft) 97,92 %
24.04.2019 07:14 15,8 C 15,6 C 14,4 C 70 % 996,4 hPa 0,0 l/m 0 min 0 min 28 W/m 19,3 km/h (3 Bft) 100,00 %
24.04.2019 07:16 15,8 C 15,6 C 14,4 C 70 % 996,4 hPa 0,0 l/m 0 min 0 min 33 W/m 19,3 km/h (3 Bft) 100,00 %
24.04.2019 07:18 15,8 C 15,6 C 15,0 C 70 % 996,4 hPa 0,0 l/m 0 min 0 min 39 W/m 25,7 km/h (4 Bft) 100,00 %
24.04.2019 07:20 15,8 C 15,6 C 15,0 C 70 % 996,4 hPa 0,0 l/m 0 min 0 min 43 W/m 16,1 km/h (3 Bft) 100,00 %
24.04.2019 07:22 15,8 C 15,6 C 15,0 C 70 % 996,4 hPa 0,0 l/m 0 min 0 min 47 W/m 12,9 km/h (3 Bft) 100,00 %
24.04.2019 07:24 15,9 C 15,6 C 15,0 C 70 % 996,5 hPa 0,0 l/m 0 min 0 min 50 W/m 9,7 km/h (2 Bft) 100,00 %
24.04.2019 07:26 15,9 C 15,6 C 15,0 C 70 % 996,5 hPa 0,0 l/m 0 min 0 min 53 W/m 29,0 km/h (5 Bft) 100,00 %
24.04.2019 07:28 15,9 C 15,6 C 15,0 C 70 % 996,5 hPa 0,0 l/m 0 min 0 min 59 W/m 19,3 km/h (3 Bft) 100,00 %
24.04.2019 07:30 15,9 C 16,1 C 15,0 C 70 % 996,6 hPa 0,0 l/m 0 min 0 min 67 W/m 12,9 km/h (3 Bft) 100,00 %
24.04.2019 07:32 15,9 C 16,1 C 15,0 C 70 % 996,6 hPa 0,0 l/m 0 min 0 min 72 W/m 9,7 km/h (2 Bft) 94,29 %
24.04.2019 07:34 16,0 C 16,1 C 15,0 C 70 % 996,5 hPa 0,0 l/m 0 min 0 min 72 W/m 16,1 km/h (3 Bft) 100,00 %
24.04.2019 07:36 16,0 C 16,1 C 15,6 C 70 % 996,6 hPa 0,0 l/m 0 min 0 min 76 W/m 16,1 km/h (3 Bft) 100,00 %
24.04.2019 07:38 16,1 C 16,1 C 15,6 C 70 % 996,5 hPa 0,0 l/m 0 min 0 min 85 W/m 12,9 km/h (3 Bft) 100,00 %
24.04.2019 07:40 16,1 C 16,1 C 15,6 C 70 % 996,6 hPa 0,0 l/m 0 min 0 min 93 W/m 16,1 km/h (3 Bft) 97,87 %
24.04.2019 07:42 16,1 C 16,1 C 15,6 C 70 % 996,6 hPa 0,0 l/m 2 min 0 min 101 W/m 9,7 km/h (2 Bft) 97,96 %
24.04.2019 07:44 16,2 C 16,1 C 15,6 C 70 % 996,6 hPa 0,0 l/m 2 min 0 min 106 W/m 12,9 km/h (3 Bft) 100,00 %
24.04.2019 07:46 16,2 C 16,1 C 15,6 C 70 % 996,6 hPa 0,0 l/m 2 min 0 min 105 W/m 16,1 km/h (3 Bft) 100,00 %
24.04.2019 07:48 16,2 C 16,7 C 15,6 C 70 % 996,7 hPa 0,0 l/m 0 min 0 min 94 W/m 16,1 km/h (3 Bft) 98,15 %
24.04.2019 07:50 16,3 C 16,7 C 15,6 C 70 % 996,7 hPa 0,0 l/m 0 min 0 min 83 W/m 6,4 km/h (2 Bft) 98,00 %
24.04.2019 07:52 16,3 C 16,7 C 15,6 C 70 % 996,8 hPa 0,0 l/m 0 min 0 min 74 W/m 12,9 km/h (3 Bft) 100,00 %
24.04.2019 07:54 16,3 C 16,1 C 15,6 C 70 % 996,8 hPa 0,0 l/m 0 min 0 min 74 W/m 12,9 km/h (3 Bft) 100,00 %
24.04.2019 07:56 16,4 C 16,1 C 15,6 C 70 % 996,8 hPa 0,0 l/m 0 min 0 min 77 W/m 12,9 km/h (3 Bft) 94,44 %
24.04.2019 07:58 16,4 C 16,1 C 15,6 C 70 % 996,9 hPa 0,0 l/m 0 min 0 min 79 W/m 12,9 km/h (3 Bft) 94,00 %
24.04.2019 08:00 16,4 C 16,1 C 15,6 C 70 % 996,8 hPa 0,0 l/m 0 min 0 min 78 W/m 12,9 km/h (3 Bft) 97,92 %
24.04.2019 08:02 16,4 C 16,1 C 15,6 C 69 % 996,9 hPa 0,0 l/m 0 min 0 min 74 W/m 12,9 km/h (3 Bft) 94,29 %
24.04.2019 08:04 16,4 C 16,1 C 15,6 C 69 % 996,9 hPa 0,0 l/m 0 min 0 min 70 W/m 16,1 km/h (3 Bft) 97,87 %
24.04.2019 08:06 16,5 C 16,1 C 15,6 C 69 % 996,9 hPa 0,0 l/m 0 min 0 min 72 W/m 12,9 km/h (3 Bft) 96,61 %
24.04.2019 08:08 16,5 C 16,1 C 15,6 C 69 % 996,9 hPa 0,0 l/m 0 min 0 min 70 W/m 9,7 km/h (2 Bft) 94,29 %
24.04.2019 08:10 16,5 C 16,1 C 15,6 C 69 % 997,0 hPa 0,0 l/m 0 min 0 min 71 W/m 16,1 km/h (3 Bft) 95,74 %
24.04.2019 08:12 16,6 C 16,7 C 15,6 C 69 % 997,0 hPa 0,0 l/m 0 min 0 min 75 W/m 12,9 km/h (3 Bft) 93,62 %
24.04.2019 08:14 16,6 C 16,7 C 16,1 C 69 % 997,1 hPa 0,0 l/m 0 min 0 min 83 W/m 16,1 km/h (3 Bft) 95,65 %
24.04.2019 08:16 16,6 C 16,7 C 16,1 C 69 % 997,1 hPa 0,0 l/m 0 min 0 min 84 W/m 12,9 km/h (3 Bft) 96,30 %
24.04.2019 08:18 16,6 C 16,7 C 16,1 C 69 % 997,1 hPa 0,0 l/m 0 min 0 min 83 W/m 19,3 km/h (3 Bft) 94,00 %
24.04.2019 08:20 16,6 C 16,7 C 15,6 C 69 % 997,1 hPa 0,0 l/m 0 min 0 min 84 W/m 19,3 km/h (3 Bft) 95,92 %
24.04.2019 08:22 16,6 C 16,7 C 16,1 C 68 % 997,2 hPa 0,0 l/m 0 min 0 min 84 W/m 25,7 km/h (4 Bft) 97,14 %
24.04.2019 08:24 16,7 C 16,7 C 16,1 C 69 % 997,1 hPa 0,0 l/m 0 min 0 min 87 W/m 16,1 km/h (3 Bft) 93,62 %
24.04.2019 08:26 16,7 C 16,7 C 16,1 C 69 % 997,1 hPa 0,0 l/m 0 min 0 min 93 W/m 12,9 km/h (3 Bft) 94,44 %
24.04.2019 08:28 16,7 C 16,7 C 16,1 C 69 % 997,1 hPa 0,0 l/m 0 min 0 min 109 W/m 19,3 km/h (3 Bft) 95,92 %
24.04.2019 08:30 16,7 C 17,2 C 16,1 C 69 % 997,2 hPa 0,0 l/m 0 min 0 min 134 W/m 16,1 km/h (3 Bft) 95,92 %
24.04.2019 08:32 16,8 C 17,2 C 16,7 C 69 % 997,2 hPa 0,0 l/m 0 min 0 min 151 W/m 19,3 km/h (3 Bft) 95,74 %
24.04.2019 08:34 16,8 C 17,2 C 16,7 C 68 % 997,3 hPa 0,0 l/m 2 min 0 min 164 W/m 22,5 km/h (4 Bft) 94,29 %
24.04.2019 08:36 16,9 C 17,2 C 16,7 C 68 % 997,3 hPa 0,0 l/m 2 min 2 min 168 W/m 22,5 km/h (4 Bft) 96,30 %
24.04.2019 08:38 16,9 C 17,8 C 17,2 C 68 % 997,3 hPa 0,0 l/m 2 min 0 min 186 W/m 16,1 km/h (3 Bft) 93,62 %
24.04.2019 08:40 16,9 C 17,8 C 17,2 C 69 % 997,2 hPa 0,0 l/m 2 min 0 min 176 W/m 12,9 km/h (3 Bft) 93,48 %
24.04.2019 08:42 17,0 C 17,8 C 17,2 C 68 % 997,2 hPa 0,0 l/m 0 min 0 min 163 W/m 19,3 km/h (3 Bft) 90,00 %
24.04.2019 08:44 17,1 C 17,8 C 17,2 C 68 % 997,2 hPa 0,0 l/m 0 min 0 min 153 W/m 12,9 km/h (3 Bft) 93,75 %
24.04.2019 08:46 17,1 C 18,9 C 17,2 C 68 % 997,2 hPa 0,0 l/m 0 min 0 min 164 W/m 22,5 km/h (4 Bft) 91,49 %
24.04.2019 08:48 17,2 C 18,9 C 17,2 C 68 % 997,2 hPa 0,0 l/m 2 min 0 min 205 W/m 16,1 km/h (3 Bft) 94,29 %
24.04.2019 08:50 17,2 C 18,9 C 17,2 C 68 % 997,2 hPa 0,0 l/m 0 min 0 min 146 W/m 9,7 km/h (2 Bft) 90,91 %
24.04.2019 08:52 17,3 C 18,3 C 17,2 C 68 % 997,2 hPa 0,0 l/m 0 min 0 min 130 W/m 19,3 km/h (3 Bft) 95,92 %
24.04.2019 08:54 17,3 C 17,8 C 17,2 C 68 % 997,2 hPa 0,0 l/m 0 min 0 min 127 W/m 22,5 km/h (4 Bft) 95,92 %
24.04.2019 08:56 17,4 C 17,8 C 17,2 C 68 % 997,2 hPa 0,0 l/m 0 min 0 min 133 W/m 16,1 km/h (3 Bft) 97,83 %
24.04.2019 08:58 17,4 C 17,8 C 17,2 C 68 % 997,2 hPa 0,0 l/m 0 min 0 min 145 W/m 16,1 km/h (3 Bft) 97,22 %
24.04.2019 09:00 17,4 C 17,8 C 17,2 C 67 % 997,3 hPa 0,0 l/m 0 min 0 min 144 W/m 16,1 km/h (3 Bft) 98,15 %
24.04.2019 09:02 17,4 C 17,8 C 17,2 C 67 % 997,3 hPa 0,0 l/m 0 min 0 min 141 W/m 16,1 km/h (3 Bft) 95,92 %
24.04.2019 09:04 17,4 C 17,8 C 17,2 C 68 % 997,3 hPa 0,0 l/m 0 min 0 min 129 W/m 19,3 km/h (3 Bft) 97,96 %
24.04.2019 09:06 17,5 C 17,2 C 16,7 C 68 % 997,2 hPa 0,0 l/m 0 min 0 min 118 W/m 32,2 km/h (5 Bft) 97,87 %
24.04.2019 09:08 17,5 C 17,2 C 16,7 C 67 % 997,3 hPa 0,0 l/m 0 min 0 min 111 W/m 16,1 km/h (3 Bft) 97,14 %
24.04.2019 09:10 17,5 C 16,7 C 16,7 C 67 % 997,3 hPa 0,0 l/m 0 min 0 min 107 W/m 22,5 km/h (4 Bft) 97,87 %
24.04.2019 09:12 17,4 C 16,7 C 16,7 C 67 % 997,4 hPa 0,0 l/m 0 min 0 min 97 W/m 22,5 km/h (4 Bft) 98,15 %
24.04.2019 09:14 17,4 C 16,7 C 16,7 C 68 % 997,4 hPa 0,0 l/m 0 min 0 min 84 W/m 16,1 km/h (3 Bft) 97,87 %
24.04.2019 09:16 17,4 C 16,7 C 16,1 C 68 % 997,4 hPa 0,0 l/m 0 min 2 min 81 W/m 16,1 km/h (3 Bft) 97,83 %
24.04.2019 09:18 17,4 C 16,1 C 15,6 C 68 % 997,4 hPa 0,0 l/m 0 min 2 min 95 W/m 19,3 km/h (3 Bft) 98,00 %
24.04.2019 09:20 17,4 C 15,6 C 15,6 C 69 % 997,5 hPa 0,0 l/m 0 min 2 min 117 W/m 19,3 km/h (3 Bft) 97,87 %
24.04.2019 09:22 17,3 C 16,1 C 15,6 C 69 % 997,5 hPa 0,0 l/m 0 min 0 min 133 W/m 19,3 km/h (3 Bft) 95,83 %
24.04.2019 09:24 17,3 C 16,1 C 16,1 C 69 % 997,5 hPa 0,0 l/m 0 min 0 min 129 W/m 29,0 km/h (5 Bft) 100,00 %
24.04.2019 09:26 17,3 C 16,7 C 16,1 C 69 % 997,6 hPa 0,0 l/m 0 min 0 min 116 W/m 19,3 km/h (3 Bft) 94,44 %
24.04.2019 09:28 17,2 C 16,7 C 16,1 C 69 % 997,5 hPa 0,0 l/m 0 min 0 min 107 W/m 22,5 km/h (4 Bft) 98,00 %
24.04.2019 09:30 17,2 C 16,7 C 16,1 C 69 % 997,5 hPa 0,0 l/m 0 min 2 min 112 W/m 16,1 km/h (3 Bft) 100,00 %
24.04.2019 09:32 17,2 C 16,7 C 16,1 C 69 % 997,7 hPa 0,0 l/m 0 min 0 min 101 W/m 22,5 km/h (4 Bft) 100,00 %
24.04.2019 09:34 17,2 C 16,7 C 16,1 C 69 % 997,8 hPa 0,0 l/m 0 min 2 min 95 W/m 25,7 km/h (4 Bft) 100,00 %
24.04.2019 09:36 17,2 C 16,7 C 16,1 C 69 % 997,8 hPa 0,0 l/m 0 min 0 min 93 W/m 16,1 km/h (3 Bft) 100,00 %
24.04.2019 09:38 17,2 C 16,7 C 16,1 C 69 % 997,7 hPa 0,0 l/m 0 min 0 min 91 W/m 22,5 km/h (4 Bft) 100,00 %
24.04.2019 09:40 17,2 C 16,7 C 16,1 C 69 % 997,7 hPa 0,0 l/m 0 min 0 min 92 W/m 25,7 km/h (4 Bft) 47,37 %
24.04.2019 09:42 17,2 C 16,1 C 15,6 C 69 % 997,6 hPa 0,0 l/m 0 min 0 min 108 W/m 25,7 km/h (4 Bft) 97,96 %
24.04.2019 09:44 17,2 C 15,0 C 15,0 C 70 % 997,5 hPa 0,0 l/m 0 min 2 min 146 W/m 16,1 km/h (3 Bft) 100,00 %
24.04.2019 09:46 17,2 C 15,6 C 15,0 C 71 % 997,5 hPa 0,0 l/m 0 min 2 min 210 W/m 12,9 km/h (3 Bft) 100,00 %
24.04.2019 09:48 17,2 C 16,7 C 16,7 C 72 % 997,5 hPa 0,0 l/m 2 min 0 min 314 W/m 6,4 km/h (2 Bft) 100,00 %
24.04.2019 09:50 17,2 C 18,3 C 18,3 C 73 % 997,5 hPa 0,0 l/m 2 min 0 min 337 W/m 16,1 km/h (3 Bft) 100,00 %
24.04.2019 09:52 17,3 C 19,4 C 18,9 C 73 % 997,6 hPa 0,0 l/m 2 min 0 min 371 W/m 9,7 km/h (2 Bft) 97,96 %
24.04.2019 09:54 17,3 C 19,4 C 18,9 C 72 % 997,7 hPa 0,0 l/m 2 min 0 min 302 W/m 16,1 km/h (3 Bft) 100,00 %
24.04.2019 09:56 17,4 C 20,0 C 19,4 C 72 % 997,7 hPa 0,0 l/m 2 min 0 min 323 W/m 16,1 km/h (3 Bft) 100,00 %
24.04.2019 09:58 17,5 C 20,0 C 19,4 C 72 % 997,8 hPa 0,0 l/m 2 min 0 min 338 W/m 19,3 km/h (3 Bft) 100,00 %
24.04.2019 10:00 17,6 C 20,6 C 20,0 C 71 % 997,9 hPa 0,0 l/m 2 min 0 min 371 W/m 22,5 km/h (4 Bft) 100,00 %
24.04.2019 10:02 17,7 C 21,1 C 21,1 C 72 % 998,0 hPa 0,0 l/m 2 min 0 min 471 W/m 16,1 km/h (3 Bft) 100,00 %
24.04.2019 10:04 17,8 C 22,2 C 22,2 C 71 % 998,0 hPa 0,0 l/m 2 min 0 min 537 W/m 22,5 km/h (4 Bft) 98,15 %
24.04.2019 10:06 18,1 C 22,2 C 22,2 C 71 % 998,0 hPa 0,0 l/m 2 min 0 min 504 W/m 29,0 km/h (5 Bft) 100,00 %
24.04.2019 10:08 18,2 C 22,2 C 22,2 C 70 % 998,0 hPa 0,0 l/m 2 min 0 min 490 W/m 19,3 km/h (3 Bft) 100,00 %
24.04.2019 10:10 18,3 C 22,8 C 22,8 C 70 % 997,9 hPa 0,0 l/m 2 min 0 min 547 W/m 29,0 km/h (5 Bft) 100,00 %
24.04.2019 10:12 18,4 C 21,7 C 22,2 C 69 % 998,0 hPa 0,0 l/m 2 min 0 min 558 W/m 25,7 km/h (4 Bft) 100,00 %
24.04.2019 10:14 18,6 C 22,2 C 22,8 C 68 % 998,0 hPa 0,0 l/m 2 min 0 min 420 W/m 25,7 km/h (4 Bft) 100,00 %
24.04.2019 10:16 18,7 C 21,1 C 21,7 C 67 % 998,0 hPa 0,0 l/m 2 min 0 min 302 W/m 22,5 km/h (4 Bft) 100,00 %
24.04.2019 10:18 18,8 C 21,1 C 21,1 C 67 % 998,1 hPa 0,0 l/m 2 min 0 min 353 W/m 22,5 km/h (4 Bft) 100,00 %
24.04.2019 10:20 18,9 C 20,6 C 20,6 C 67 % 998,0 hPa 0,0 l/m 2 min 0 min 320 W/m 29,0 km/h (5 Bft) 100,00 %
24.04.2019 10:22 19,0 C 22,8 C 22,8 C 67 % 998,0 hPa 0,0 l/m 0 min 0 min 276 W/m 16,1 km/h (3 Bft) 100,00 %
24.04.2019 10:24 19,1 C 21,1 C 21,7 C 66 % 998,1 hPa 0,0 l/m 0 min 0 min 276 W/m 22,5 km/h (4 Bft) 100,00 %
24.04.2019 10:26 19,1 C 21,7 C 21,7 C 66 % 998,1 hPa 0,0 l/m 2 min 0 min 338 W/m 22,5 km/h (4 Bft) 100,00 %
24.04.2019 10:28 19,2 C 22,2 C 22,2 C 65 % 998,1 hPa 0,0 l/m 2 min 0 min 370 W/m 16,1 km/h (3 Bft) 100,00 %
24.04.2019 10:30 19,2 C 21,1 C 21,1 C 65 % 998,1 hPa 0,0 l/m 2 min 0 min 320 W/m 25,7 km/h (4 Bft) 100,00 %
24.04.2019 10:32 19,3 C 21,1 C 20,6 C 65 % 998,1 hPa 0,0 l/m 2 min 0 min 327 W/m 22,5 km/h (4 Bft) 95,74 %
24.04.2019 10:34 19,3 C 20,6 C 20,0 C 65 % 998,1 hPa 0,0 l/m 0 min 0 min 274 W/m 22,5 km/h (4 Bft) 100,00 %
24.04.2019 10:36 19,4 C 20,6 C 20,6 C 66 % 998,1 hPa 0,0 l/m 0 min 0 min 266 W/m 12,9 km/h (3 Bft) 100,00 %
24.04.2019 10:38 19,4 C 20,0 C 20,0 C 66 % 998,1 hPa 0,0 l/m 0 min 0 min 251 W/m 19,3 km/h (3 Bft) 100,00 %
24.04.2019 10:40 19,4 C 20,0 C 20,0 C 65 % 998,2 hPa 0,0 l/m 0 min 0 min 222 W/m 16,1 km/h (3 Bft) 97,87 %
24.04.2019 10:42 19,4 C 20,0 C 19,4 C 65 % 998,2 hPa 0,0 l/m 0 min 0 min 228 W/m 22,5 km/h (4 Bft) 97,14 %
24.04.2019 10:44 19,4 C 20,0 C 19,4 C 64 % 998,2 hPa 0,0 l/m 0 min 0 min 245 W/m 22,5 km/h (4 Bft) 96,30 %
24.04.2019 10:46 19,4 C 20,0 C 19,4 C 64 % 998,2 hPa 0,0 l/m 0 min 0 min 274 W/m 25,7 km/h (4 Bft) 98,00 %
24.04.2019 10:48 19,4 C 20,0 C 20,0 C 64 % 998,2 hPa 0,0 l/m 0 min 0 min 275 W/m 22,5 km/h (4 Bft) 97,92 %
24.04.2019 10:50 19,5 C 20,0 C 19,4 C 64 % 998,1 hPa 0,0 l/m 0 min 0 min 252 W/m 22,5 km/h (4 Bft) 97,14 %
24.04.2019 10:52 19,5 C 20,0 C 20,0 C 64 % 998,2 hPa 0,0 l/m 0 min 0 min 243 W/m 22,5 km/h (4 Bft) 95,74 %
24.04.2019 10:54 19,5 C 22,2 C 22,2 C 64 % 998,2 hPa 0,0 l/m 0 min 0 min 278 W/m 19,3 km/h (3 Bft) 96,30 %
24.04.2019 10:56 19,6 C 23,9 C 23,9 C 64 % 998,2 hPa 0,0 l/m 2 min 0 min 648 W/m 29,0 km/h (5 Bft) 93,62 %
24.04.2019 10:58 19,7 C 25,0 C 25,0 C 65 % 998,2 hPa 0,0 l/m 2 min 0 min 654 W/m 25,7 km/h (4 Bft) 98,00 %
24.04.2019 11:00 19,8 C 25,6 C 25,6 C 65 % 998,2 hPa 0,0 l/m 2 min 0 min 656 W/m 22,5 km/h (4 Bft) 95,83 %
24.04.2019 11:02 20,0 C 25,0 C 25,6 C 64 % 998,2 hPa 0,0 l/m 2 min 0 min 706 W/m 25,7 km/h (4 Bft) 100,00 %
24.04.2019 11:04 20,2 C 25,6 C 26,1 C 63 % 998,1 hPa 0,0 l/m 2 min 0 min 715 W/m 16,1 km/h (3 Bft) 92,59 %
24.04.2019 11:06 20,3 C 25,0 C 25,6 C 63 % 998,1 hPa 0,0 l/m 2 min 0 min 544 W/m 19,3 km/h (3 Bft) 98,00 %
24.04.2019 11:08 20,4 C 25,0 C 25,0 C 63 % 998,1 hPa 0,0 l/m 2 min 0 min 504 W/m 16,1 km/h (3 Bft) 97,87 %
24.04.2019 11:10 20,6 C 25,0 C 25,6 C 63 % 998,2 hPa 0,0 l/m 2 min 0 min 688 W/m 22,5 km/h (4 Bft) 95,74 %
24.04.2019 11:12 20,7 C 24,4 C 25,0 C 62 % 998,0 hPa 0,0 l/m 2 min 0 min 510 W/m 32,2 km/h (5 Bft) 95,83 %
24.04.2019 11:14 20,8 C 24,4 C 24,4 C 61 % 998,0 hPa 0,0 l/m 2 min 0 min 563 W/m 32,2 km/h (5 Bft) 91,43 %
24.04.2019 11:16 20,9 C 24,4 C 25,0 C 61 % 998,0 hPa 0,0 l/m 2 min 0 min 787 W/m 35,4 km/h (5 Bft) 96,30 %
24.04.2019 11:18 21,0 C 23,3 C 23,9 C 61 % 998,0 hPa 0,0 l/m 2 min 0 min 403 W/m 29,0 km/h (5 Bft) 94,00 %
24.04.2019 11:20 21,1 C 25,0 C 25,6 C 61 % 998,0 hPa 0,0 l/m 2 min 0 min 655 W/m 29,0 km/h (5 Bft) 95,74 %
24.04.2019 11:22 21,2 C 25,6 C 26,1 C 61 % 997,9 hPa 0,0 l/m 2 min 0 min 713 W/m 25,7 km/h (4 Bft) 97,92 %
24.04.2019 11:24 21,2 C 25,6 C 26,1 C 61 % 997,9 hPa 0,0 l/m 2 min 0 min 694 W/m 12,9 km/h (3 Bft) 97,14 %
24.04.2019 11:26 21,3 C 25,6 C 26,1 C 61 % 997,8 hPa 0,0 l/m 2 min 0 min 700 W/m 29,0 km/h (5 Bft) 97,87 %
24.04.2019 11:28 21,4 C 26,1 C 26,7 C 60 % 997,7 hPa 0,0 l/m 2 min 0 min 705 W/m 22,5 km/h (4 Bft) 98,15 %
24.04.2019 11:30 21,6 C 26,7 C 27,2 C 61 % 997,6 hPa 0,0 l/m 2 min 0 min 711 W/m 19,3 km/h (3 Bft) 96,00 %
24.04.2019 11:32 21,7 C 26,7 C 27,2 C 61 % 997,5 hPa 0,0 l/m 2 min 0 min 705 W/m 16,1 km/h (3 Bft) 97,87 %
24.04.2019 11:34 21,8 C 27,2 C 27,2 C 60 % 997,4 hPa 0,0 l/m 2 min 0 min 707 W/m 16,1 km/h (3 Bft) 95,83 %
24.04.2019 11:36 21,9 C 26,1 C 27,2 C 59 % 997,5 hPa 0,0 l/m 2 min 0 min 727 W/m 29,0 km/h (5 Bft) 97,87 %
24.04.2019 11:38 22,0 C 26,7 C 27,2 C 59 % 997,5 hPa 0,0 l/m 2 min 0 min 726 W/m 35,4 km/h (5 Bft) 97,87 %
24.04.2019 11:40 22,1 C 26,1 C 26,7 C 58 % 997,6 hPa 0,0 l/m 2 min 0 min 728 W/m 32,2 km/h (5 Bft) 93,48 %
24.04.2019 11:42 22,2 C 26,1 C 27,2 C 58 % 997,7 hPa 0,0 l/m 2 min 0 min 729 W/m 22,5 km/h (4 Bft) 97,22 %
24.04.2019 11:44 22,3 C 26,7 C 27,2 C 58 % 997,7 hPa 0,0 l/m 2 min 0 min 727 W/m 22,5 km/h (4 Bft) 98,15 %
24.04.2019 11:46 22,4 C 27,8 C 28,3 C 59 % 997,8 hPa 0,0 l/m 2 min 0 min 730 W/m 19,3 km/h (3 Bft) 96,00 %
24.04.2019 11:48 22,6 C 28,3 C 28,9 C 59 % 997,9 hPa 0,0 l/m 2 min 0 min 738 W/m 25,7 km/h (4 Bft) 95,83 %
24.04.2019 11:50 22,7 C 27,2 C 28,3 C 58 % 997,8 hPa 0,0 l/m 2 min 0 min 744 W/m 29,0 km/h (5 Bft) 94,29 %
24.04.2019 11:52 22,8 C 28,3 C 28,9 C 58 % 997,9 hPa 0,0 l/m 2 min 0 min 745 W/m 19,3 km/h (3 Bft) 96,30 %
24.04.2019 11:54 22,9 C 28,3 C 28,9 C 57 % 997,8 hPa 0,0 l/m 2 min 0 min 744 W/m 29,0 km/h (5 Bft) 96,00 %
24.04.2019 11:56 23,1 C 28,3 C 28,9 C 57 % 997,8 hPa 0,0 l/m 2 min 0 min 751 W/m 22,5 km/h (4 Bft) 93,75 %
24.04.2019 11:58 23,2 C 28,3 C 28,3 C 57 % 997,7 hPa 0,0 l/m 2 min 0 min 759 W/m 19,3 km/h (3 Bft) 94,29 %
24.04.2019 12:00 23,3 C 28,9 C 28,9 C 56 % 997,7 hPa 0,0 l/m 2 min 0 min 767 W/m 19,3 km/h (3 Bft) 95,74 %
24.04.2019 12:02 23,4 C 27,8 C 28,9 C 56 % 997,7 hPa 0,0 l/m 2 min 0 min 774 W/m 45,1 km/h (6 Bft) 96,30 %
24.04.2019 12:04 23,5 C 27,2 C 28,3 C 55 % 997,6 hPa 0,0 l/m 2 min 0 min 786 W/m 29,0 km/h (5 Bft) 92,00 %
24.04.2019 12:08 23,7 C 28,3 C 28,9 C 55 % 997,7 hPa 0,0 l/m 4 min 0 min 799 W/m 35,4 km/h (5 Bft) 95,79 %
24.04.2019 12:10 23,8 C 28,9 C 29,4 C 54 % 997,7 hPa 0,0 l/m 2 min 0 min 814 W/m 32,2 km/h (5 Bft) 100,00 %
24.04.2019 12:12 23,9 C 27,8 C 29,4 C 54 % 997,6 hPa 0,0 l/m 2 min 0 min 826 W/m 32,2 km/h (5 Bft) 92,59 %
24.04.2019 12:14 23,9 C 27,2 C 28,3 C 52 % 997,6 hPa 0,0 l/m 2 min 0 min 789 W/m 29,0 km/h (5 Bft) 96,00 %
24.04.2019 12:16 24,0 C 27,2 C 28,3 C 53 % 997,7 hPa 0,0 l/m 2 min 0 min 759 W/m 35,4 km/h (5 Bft) 95,83 %
24.04.2019 12:18 24,0 C 27,2 C 28,3 C 52 % 997,6 hPa 0,0 l/m 2 min 0 min 637 W/m 35,4 km/h (5 Bft) 94,29 %
24.04.2019 12:20 24,1 C 27,8 C 29,4 C 52 % 997,7 hPa 0,0 l/m 2 min 0 min 772 W/m 29,0 km/h (5 Bft) 96,36 %
24.04.2019 12:22 24,1 C 27,8 C 28,3 C 51 % 997,7 hPa 0,0 l/m 2 min 0 min 829 W/m 32,2 km/h (5 Bft) 97,96 %
24.04.2019 12:24 24,2 C 27,2 C 27,8 C 51 % 997,7 hPa 0,0 l/m 2 min 0 min 805 W/m 45,1 km/h (6 Bft) 97,96 %
24.04.2019 12:26 24,2 C 26,7 C 27,8 C 49 % 997,7 hPa 0,0 l/m 2 min 0 min 709 W/m 25,7 km/h (4 Bft) 94,29 %
24.04.2019 12:28 24,2 C 26,1 C 27,2 C 47 % 997,8 hPa 0,0 l/m 2 min 0 min 550 W/m 29,0 km/h (5 Bft) 98,15 %
24.04.2019 12:30 24,2 C 27,8 C 28,9 C 47 % 997,9 hPa 0,0 l/m 2 min 0 min 612 W/m 19,3 km/h (3 Bft) 98,00 %
24.04.2019 12:32 24,2 C 28,9 C 30,0 C 47 % 997,9 hPa 0,0 l/m 2 min 0 min 831 W/m 32,2 km/h (5 Bft) 95,83 %
24.04.2019 12:34 24,4 C 28,9 C 30,6 C 46 % 998,0 hPa 0,0 l/m 2 min 0 min 828 W/m 29,0 km/h (5 Bft) 97,14 %
24.04.2019 12:36 24,5 C 28,3 C 29,4 C 45 % 998,0 hPa 0,0 l/m 2 min 0 min 822 W/m 32,2 km/h (5 Bft) 98,15 %
24.04.2019 12:38 24,6 C 28,9 C 30,6 C 45 % 997,9 hPa 0,0 l/m 2 min 0 min 822 W/m 22,5 km/h (4 Bft) 97,87 %
24.04.2019 12:40 24,7 C 28,9 C 30,6 C 45 % 998,0 hPa 0,0 l/m 2 min 0 min 816 W/m 32,2 km/h (5 Bft) 97,87 %
24.04.2019 12:42 24,7 C 28,9 C 30,6 C 44 % 998,0 hPa 0,0 l/m 2 min 0 min 813 W/m 41,8 km/h (6 Bft) 100,00 %
24.04.2019 12:44 24,8 C 29,4 C 30,6 C 45 % 998,0 hPa 0,0 l/m 2 min 0 min 817 W/m 35,4 km/h (5 Bft) 100,00 %
24.04.2019 12:46 24,9 C 28,9 C 30,6 C 44 % 998,0 hPa 0,0 l/m 2 min 0 min 818 W/m 29,0 km/h (5 Bft) 100,00 %
24.04.2019 12:48 25,0 C 28,3 C 30,0 C 44 % 998,1 hPa 0,0 l/m 2 min 0 min 819 W/m 38,6 km/h (5 Bft) 97,87 %
24.04.2019 12:50 25,0 C 27,8 C 29,4 C 43 % 998,1 hPa 0,0 l/m 2 min 0 min 817 W/m 38,6 km/h (5 Bft) 100,00 %
24.04.2019 12:52 25,0 C 28,3 C 29,4 C 44 % 998,1 hPa 0,0 l/m 2 min 0 min 819 W/m 29,0 km/h (5 Bft) 100,00 %
24.04.2019 12:54 25,1 C 27,8 C 29,4 C 44 % 998,1 hPa 0,0 l/m 2 min 0 min 819 W/m 35,4 km/h (5 Bft) 100,00 %
24.04.2019 12:56 25,1 C 28,9 C 30,6 C 44 % 998,1 hPa 0,0 l/m 2 min 0 min 819 W/m 38,6 km/h (5 Bft) 100,00 %
24.04.2019 12:58 25,1 C 28,3 C 30,6 C 44 % 998,0 hPa 0,0 l/m 2 min 0 min 824 W/m 29,0 km/h (5 Bft) 97,87 %
24.04.2019 13:00 25,1 C 28,9 C 31,1 C 44 % 998,0 hPa 0,0 l/m 2 min 0 min 820 W/m 22,5 km/h (4 Bft) 97,87 %
24.04.2019 13:02 25,1 C 28,9 C 30,6 C 44 % 998,0 hPa 0,0 l/m 2 min 0 min 817 W/m 32,2 km/h (5 Bft) 100,00 %
24.04.2019 13:04 25,1 C 28,9 C 31,1 C 44 % 998,1 hPa 0,0 l/m 2 min 0 min 817 W/m 32,2 km/h (5 Bft) 100,00 %
24.04.2019 13:06 25,1 C 28,9 C 31,1 C 44 % 997,9 hPa 0,0 l/m 2 min 0 min 821 W/m 29,0 km/h (5 Bft) 100,00 %
24.04.2019 13:08 25,1 C 29,4 C 31,7 C 44 % 997,9 hPa 0,0 l/m 2 min 0 min 823 W/m 16,1 km/h (3 Bft) 95,74 %
24.04.2019 13:10 25,2 C 30,0 C 32,2 C 45 % 997,9 hPa 0,0 l/m 2 min 0 min 826 W/m 22,5 km/h (4 Bft) 100,00 %
24.04.2019 13:12 25,3 C 29,4 C 31,7 C 44 % 997,9 hPa 0,0 l/m 2 min 0 min 832 W/m 41,8 km/h (6 Bft) 94,29 %
24.04.2019 13:14 25,3 C 29,4 C 32,2 C 44 % 998,0 hPa 0,0 l/m 2 min 0 min 834 W/m 25,7 km/h (4 Bft) 96,30 %
24.04.2019 13:16 25,3 C 30,0 C 32,2 C 44 % 998,0 hPa 0,0 l/m 2 min 0 min 835 W/m 16,1 km/h (3 Bft) 98,00 %
24.04.2019 13:18 25,4 C 30,0 C 33,3 C 43 % 997,9 hPa 0,0 l/m 2 min 0 min 839 W/m 22,5 km/h (4 Bft) 97,92 %
24.04.2019 13:20 25,4 C 29,4 C 32,2 C 44 % 998,0 hPa 0,0 l/m 2 min 0 min 840 W/m 19,3 km/h (3 Bft) 97,14 %
24.04.2019 13:22 25,5 C 29,4 C 31,7 C 43 % 997,9 hPa 0,0 l/m 2 min 0 min 838 W/m 29,0 km/h (5 Bft) 95,74 %
24.04.2019 13:24 25,6 C 30,0 C 32,2 C 43 % 997,9 hPa 0,0 l/m 2 min 0 min 837 W/m 29,0 km/h (5 Bft) 96,30 %
24.04.2019 13:26 25,6 C 29,4 C 32,2 C 43 % 997,9 hPa 0,0 l/m 2 min 0 min 838 W/m 25,7 km/h (4 Bft) 98,00 %
24.04.2019 13:28 25,7 C 30,0 C 32,2 C 43 % 998,0 hPa 0,0 l/m 2 min 0 min 837 W/m 25,7 km/h (4 Bft) 97,92 %
24.04.2019 13:30 25,7 C 30,0 C 32,2 C 42 % 997,9 hPa 0,0 l/m 2 min 0 min 836 W/m 32,2 km/h (5 Bft) 97,14 %
24.04.2019 13:32 25,8 C 29,4 C 32,2 C 42 % 997,9 hPa 0,0 l/m 2 min 0 min 833 W/m 35,4 km/h (5 Bft) 98,18 %
24.04.2019 13:34 25,8 C 28,9 C 31,7 C 42 % 997,9 hPa 0,0 l/m 2 min 0 min 833 W/m 29,0 km/h (5 Bft) 97,96 %
24.04.2019 13:36 25,8 C 30,0 C 32,8 C 42 % 997,9 hPa 0,0 l/m 2 min 0 min 842 W/m 22,5 km/h (4 Bft) 95,92 %
24.04.2019 13:38 25,8 C 29,4 C 32,8 C 42 % 997,8 hPa 0,0 l/m 2 min 0 min 837 W/m 29,0 km/h (5 Bft) 97,83 %
24.04.2019 13:40 25,8 C 28,9 C 32,2 C 42 % 997,8 hPa 0,0 l/m 2 min 0 min 834 W/m 25,7 km/h (4 Bft) 97,87 %
24.04.2019 13:42 25,9 C 30,0 C 32,8 C 43 % 997,7 hPa 0,0 l/m 2 min 0 min 838 W/m 16,1 km/h (3 Bft) 97,14 %
24.04.2019 13:44 25,9 C 30,6 C 33,3 C 43 % 997,7 hPa 0,0 l/m 2 min 0 min 840 W/m 22,5 km/h (4 Bft) 97,87 %
24.04.2019 13:46 26,0 C 30,0 C 33,3 C 42 % 997,6 hPa 0,0 l/m 2 min 0 min 836 W/m 22,5 km/h (4 Bft) 97,87 %
24.04.2019 13:48 26,0 C 30,0 C 33,3 C 41 % 997,6 hPa 0,0 l/m 2 min 0 min 837 W/m 19,3 km/h (3 Bft) 98,15 %
24.04.2019 13:50 26,1 C 29,4 C 32,8 C 42 % 997,6 hPa 0,0 l/m 2 min 0 min 836 W/m 29,0 km/h (5 Bft) 95,74 %
24.04.2019 13:52 26,1 C 29,4 C 32,8 C 42 % 997,6 hPa 0,0 l/m 2 min 0 min 841 W/m 22,5 km/h (4 Bft) 97,87 %
24.04.2019 13:54 26,2 C 30,0 C 33,3 C 42 % 997,6 hPa 0,0 l/m 2 min 0 min 846 W/m 22,5 km/h (4 Bft) 98,00 %
24.04.2019 13:56 26,2 C 30,0 C 32,8 C 41 % 997,7 hPa 0,0 l/m 2 min 0 min 844 W/m 35,4 km/h (5 Bft) 97,83 %
24.04.2019 13:58 26,2 C 29,4 C 32,2 C 41 % 997,6 hPa 0,0 l/m 2 min 0 min 843 W/m 32,2 km/h (5 Bft) 97,96 %
24.04.2019 14:00 26,3 C 29,4 C 31,7 C 41 % 997,5 hPa 0,0 l/m 2 min 0 min 837 W/m 25,7 km/h (4 Bft) 100,00 %
24.04.2019 14:02 26,3 C 30,0 C 32,8 C 41 % 997,7 hPa 0,0 l/m 2 min 0 min 838 W/m 19,3 km/h (3 Bft) 97,22 %
24.04.2019 14:04 26,3 C 29,4 C 32,8 C 40 % 997,5 hPa 0,0 l/m 2 min 0 min 836 W/m 19,3 km/h (3 Bft) 100,00 %
24.04.2019 14:06 26,3 C 29,4 C 32,2 C 41 % 997,6 hPa 0,0 l/m 2 min 0 min 832 W/m 19,3 km/h (3 Bft) 100,00 %
24.04.2019 14:08 26,3 C 28,9 C 31,7 C 40 % 997,6 hPa 0,0 l/m 2 min 0 min 824 W/m 29,0 km/h (5 Bft) 100,00 %
24.04.2019 14:10 26,3 C 29,4 C 32,2 C 41 % 997,5 hPa 0,0 l/m 2 min 0 min 805 W/m 25,7 km/h (4 Bft) 100,00 %
24.04.2019 14:12 26,3 C 30,0 C 33,3 C 41 % 997,4 hPa 0,0 l/m 2 min 0 min 794 W/m 16,1 km/h (3 Bft) 100,00 %
24.04.2019 14:14 26,3 C 29,4 C 32,2 C 42 % 997,5 hPa 0,0 l/m 2 min 0 min 818 W/m 29,0 km/h (5 Bft) 100,00 %
24.04.2019 14:16 26,3 C 29,4 C 32,2 C 41 % 997,5 hPa 0,0 l/m 2 min 0 min 846 W/m 16,1 km/h (3 Bft) 100,00 %
24.04.2019 14:18 26,3 C 30,0 C 32,8 C 41 % 997,4 hPa 0,0 l/m 2 min 0 min 829 W/m 12,9 km/h (3 Bft) 100,00 %
24.04.2019 14:20 26,4 C 29,4 C 32,2 C 41 % 997,5 hPa 0,0 l/m 2 min 0 min 843 W/m 22,5 km/h (4 Bft) 100,00 %
24.04.2019 14:22 26,4 C 30,0 C 32,8 C 41 % 997,4 hPa 0,0 l/m 2 min 0 min 847 W/m 22,5 km/h (4 Bft) 100,00 %
24.04.2019 14:24 26,4 C 30,0 C 32,8 C 42 % 997,5 hPa 0,0 l/m 2 min 0 min 849 W/m 19,3 km/h (3 Bft) 100,00 %
24.04.2019 14:26 26,5 C 29,4 C 32,2 C 41 % 997,4 hPa 0,0 l/m 2 min 0 min 842 W/m 29,0 km/h (5 Bft) 97,87 %
24.04.2019 14:28 26,5 C 28,9 C 31,7 C 40 % 997,4 hPa 0,0 l/m 2 min 0 min 824 W/m 25,7 km/h (4 Bft) 100,00 %
24.04.2019 14:30 26,6 C 30,0 C 32,2 C 41 % 997,4 hPa 0,0 l/m 2 min 0 min 830 W/m 29,0 km/h (5 Bft) 100,00 %
24.04.2019 14:32 26,6 C 28,9 C 31,7 C 39 % 997,4 hPa 0,0 l/m 2 min 0 min 830 W/m 32,2 km/h (5 Bft) 100,00 %
24.04.2019 14:34 26,6 C 28,9 C 31,1 C 39 % 997,4 hPa 0,0 l/m 2 min 0 min 830 W/m 29,0 km/h (5 Bft) 100,00 %
24.04.2019 14:36 26,6 C 29,4 C 31,7 C 39 % 997,4 hPa 0,0 l/m 2 min 0 min 814 W/m 22,5 km/h (4 Bft) 97,87 %
24.04.2019 14:38 26,6 C 28,9 C 30,6 C 39 % 997,4 hPa 0,0 l/m 2 min 0 min 799 W/m 25,7 km/h (4 Bft) 100,00 %
24.04.2019 14:40 26,6 C 28,3 C 29,4 C 39 % 997,4 hPa 0,0 l/m 2 min 0 min 800 W/m 41,8 km/h (6 Bft) 97,87 %
24.04.2019 14:42 26,6 C 28,3 C 28,3 C 39 % 997,4 hPa 0,0 l/m 2 min 0 min 802 W/m 29,0 km/h (5 Bft) 97,96 %
24.04.2019 14:44 26,6 C 29,4 C 27,8 C 40 % 997,4 hPa 0,0 l/m 2 min 0 min 822 W/m 29,0 km/h (5 Bft) 100,00 %
24.04.2019 14:46 26,6 C 28,9 C 27,2 C 39 % 997,4 hPa 0,0 l/m 2 min 0 min 798 W/m 25,7 km/h (4 Bft) 98,11 %
24.04.2019 14:48 26,6 C 28,9 C 27,2 C 40 % 997,3 hPa 0,0 l/m 2 min 0 min 751 W/m 25,7 km/h (4 Bft) 97,87 %
24.04.2019 14:50 26,6 C 29,4 C 27,2 C 40 % 997,3 hPa 0,0 l/m 2 min 0 min 726 W/m 19,3 km/h (3 Bft) 97,87 %
24.04.2019 14:52 26,7 C 29,4 C 27,8 C 40 % 997,3 hPa 0,0 l/m 2 min 0 min 748 W/m 32,2 km/h (5 Bft) 95,74 %
24.04.2019 14:54 26,7 C 28,9 C 27,8 C 40 % 997,3 hPa 0,0 l/m 2 min 0 min 729 W/m 32,2 km/h (5 Bft) 97,83 %
24.04.2019 14:56 26,7 C 28,9 C 27,2 C 40 % 997,3 hPa 0,0 l/m 2 min 0 min 743 W/m 22,5 km/h (4 Bft) 98,00 %
24.04.2019 14:58 26,7 C 30,0 C 27,2 C 40 % 997,2 hPa 0,0 l/m 2 min 0 min 849 W/m 12,9 km/h (3 Bft) 97,87 %
24.04.2019 15:00 26,7 C 30,6 C 27,8 C 40 % 997,2 hPa 0,0 l/m 2 min 0 min 877 W/m 16,1 km/h (3 Bft) 97,96 %
24.04.2019 15:02 26,8 C 30,6 C 27,8 C 41 % 997,2 hPa 0,0 l/m 2 min 0 min 811 W/m 19,3 km/h (3 Bft) 94,44 %
24.04.2019 15:04 26,9 C 30,6 C 27,8 C 40 % 997,3 hPa 0,0 l/m 2 min 0 min 791 W/m 22,5 km/h (4 Bft) 96,23 %
24.04.2019 15:06 26,9 C 29,4 C 27,2 C 39 % 997,2 hPa 0,0 l/m 2 min 0 min 696 W/m 25,7 km/h (4 Bft) 95,65 %
24.04.2019 15:08 26,9 C 29,4 C 27,2 C 39 % 997,1 hPa 0,0 l/m 2 min 0 min 687 W/m 16,1 km/h (3 Bft) 97,87 %
24.04.2019 15:10 27,0 C 30,0 C 27,2 C 40 % 997,2 hPa 0,0 l/m 2 min 0 min 714 W/m 16,1 km/h (3 Bft) 95,74 %
24.04.2019 15:12 27,0 C 28,9 C 27,2 C 39 % 997,1 hPa 0,0 l/m 2 min 0 min 671 W/m 32,2 km/h (5 Bft) 95,74 %
24.04.2019 15:14 27,0 C 28,9 C 27,2 C 39 % 997,2 hPa 0,0 l/m 2 min 0 min 657 W/m 25,7 km/h (4 Bft) 96,00 %
24.04.2019 15:16 27,1 C 29,4 C 27,2 C 39 % 997,1 hPa 0,0 l/m 2 min 0 min 679 W/m 22,5 km/h (4 Bft) 95,74 %
24.04.2019 15:18 27,1 C 28,9 C 27,2 C 39 % 997,1 hPa 0,0 l/m 2 min 0 min 698 W/m 25,7 km/h (4 Bft) 95,92 %
24.04.2019 15:20 27,1 C 28,9 C 27,2 C 39 % 997,1 hPa 0,0 l/m 2 min 0 min 722 W/m 25,7 km/h (4 Bft) 94,29 %
24.04.2019 15:22 27,1 C 28,3 C 27,2 C 39 % 997,1 hPa 0,0 l/m 2 min 0 min 707 W/m 35,4 km/h (5 Bft) 93,62 %
24.04.2019 15:24 27,0 C 28,9 C 27,2 C 39 % 997,0 hPa 0,0 l/m 2 min 0 min 687 W/m 25,7 km/h (4 Bft) 94,34 %
24.04.2019 15:26 27,1 C 28,9 C 27,2 C 39 % 997,0 hPa 0,0 l/m 2 min 0 min 691 W/m 19,3 km/h (3 Bft) 96,00 %
24.04.2019 15:28 27,1 C 28,9 C 27,2 C 39 % 997,0 hPa 0,0 l/m 2 min 0 min 616 W/m 19,3 km/h (3 Bft) 95,74 %
24.04.2019 15:30 27,1 C 28,3 C 26,7 C 39 % 996,9 hPa 0,0 l/m 2 min 0 min 605 W/m 12,9 km/h (3 Bft) 93,48 %
24.04.2019 15:32 27,1 C 28,9 C 26,7 C 39 % 996,9 hPa 0,0 l/m 2 min 0 min 680 W/m 19,3 km/h (3 Bft) 95,74 %
24.04.2019 15:34 27,1 C 28,9 C 26,7 C 39 % 996,9 hPa 0,0 l/m 2 min 0 min 682 W/m 12,9 km/h (3 Bft) 95,74 %
24.04.2019 15:36 27,1 C 27,8 C 26,7 C 39 % 996,8 hPa 0,0 l/m 2 min 0 min 632 W/m 35,4 km/h (5 Bft) 97,96 %
24.04.2019 15:38 27,1 C 27,8 C 26,7 C 40 % 996,7 hPa 0,0 l/m 2 min 0 min 632 W/m 22,5 km/h (4 Bft) 97,87 %
24.04.2019 15:40 27,0 C 27,8 C 26,7 C 40 % 996,8 hPa 0,0 l/m 2 min 0 min 652 W/m 16,1 km/h (3 Bft) 97,87 %
24.04.2019 15:42 27,0 C 28,3 C 26,7 C 40 % 996,8 hPa 0,0 l/m 2 min 0 min 624 W/m 9,7 km/h (2 Bft) 97,14 %
24.04.2019 15:44 27,0 C 28,3 C 26,7 C 40 % 996,8 hPa 0,0 l/m 2 min 0 min 590 W/m 12,9 km/h (3 Bft) 95,74 %
24.04.2019 15:46 27,0 C 28,3 C 26,7 C 40 % 996,8 hPa 0,0 l/m 2 min 0 min 601 W/m 22,5 km/h (4 Bft) 96,23 %
24.04.2019 15:48 27,0 C 27,8 C 26,7 C 40 % 996,8 hPa 0,0 l/m 2 min 0 min 552 W/m 19,3 km/h (3 Bft) 97,87 %
24.04.2019 15:50 26,9 C 27,8 C 26,7 C 40 % 996,9 hPa 0,0 l/m 2 min 0 min 548 W/m 29,0 km/h (5 Bft) 95,74 %
24.04.2019 15:52 26,9 C 27,8 C 26,7 C 40 % 996,9 hPa 0,0 l/m 2 min 0 min 595 W/m 22,5 km/h (4 Bft) 93,88 %
24.04.2019 15:54 26,9 C 27,8 C 26,7 C 40 % 996,9 hPa 0,0 l/m 2 min 0 min 596 W/m 16,1 km/h (3 Bft) 92,00 %
24.04.2019 15:56 26,9 C 27,8 C 26,7 C 40 % 996,9 hPa 0,0 l/m 2 min 0 min 621 W/m 22,5 km/h (4 Bft) 91,43 %
24.04.2019 15:58 26,9 C 27,8 C 26,7 C 40 % 996,9 hPa 0,0 l/m 2 min 0 min 599 W/m 19,3 km/h (3 Bft) 95,74 %
24.04.2019 16:00 26,9 C 27,8 C 26,7 C 40 % 996,9 hPa 0,0 l/m 2 min 0 min 584 W/m 12,9 km/h (3 Bft) 93,62 %
24.04.2019 16:02 26,9 C 28,3 C 26,7 C 40 % 996,9 hPa 0,0 l/m 2 min 0 min 638 W/m 16,1 km/h (3 Bft) 97,83 %
24.04.2019 16:04 26,9 C 27,8 C 26,7 C 40 % 996,9 hPa 0,0 l/m 2 min 0 min 653 W/m 25,7 km/h (4 Bft) 95,74 %
24.04.2019 16:06 26,9 C 27,2 C 26,7 C 39 % 997,0 hPa 0,0 l/m 2 min 0 min 652 W/m 16,1 km/h (3 Bft) 98,11 %
24.04.2019 16:08 26,9 C 26,7 C 26,1 C 39 % 997,0 hPa 0,0 l/m 2 min 0 min 652 W/m 25,7 km/h (4 Bft) 97,87 %
24.04.2019 16:10 26,8 C 27,2 C 26,1 C 39 % 997,0 hPa 0,0 l/m 2 min 0 min 628 W/m 29,0 km/h (5 Bft) 95,74 %
24.04.2019 16:12 26,8 C 27,2 C 26,7 C 39 % 997,0 hPa 0,0 l/m 2 min 0 min 620 W/m 19,3 km/h (3 Bft) 98,00 %
24.04.2019 16:14 26,8 C 27,8 C 26,7 C 40 % 996,9 hPa 0,0 l/m 2 min 0 min 621 W/m 19,3 km/h (3 Bft) 95,74 %
24.04.2019 16:16 26,8 C 28,3 C 27,2 C 41 % 996,9 hPa 0,0 l/m 2 min 0 min 632 W/m 16,1 km/h (3 Bft) 97,83 %
24.04.2019 16:18 26,9 C 27,8 C 27,2 C 40 % 997,0 hPa 0,0 l/m 2 min 0 min 614 W/m 22,5 km/h (4 Bft) 98,00 %
24.04.2019 16:20 26,9 C 27,2 C 26,7 C 39 % 996,9 hPa 0,0 l/m 2 min 0 min 550 W/m 19,3 km/h (3 Bft) 97,87 %
24.04.2019 16:22 26,9 C 26,7 C 26,1 C 39 % 996,9 hPa 0,0 l/m 2 min 0 min 521 W/m 25,7 km/h (4 Bft) 97,83 %
24.04.2019 16:24 26,9 C 26,1 C 26,1 C 39 % 996,9 hPa 0,0 l/m 0 min 0 min 276 W/m 22,5 km/h (4 Bft) 97,14 %
24.04.2019 16:26 26,8 C 26,1 C 26,1 C 39 % 997,0 hPa 0,0 l/m 2 min 0 min 484 W/m 22,5 km/h (4 Bft) 97,87 %
24.04.2019 16:28 26,8 C 26,7 C 26,1 C 39 % 997,0 hPa 0,0 l/m 2 min 0 min 535 W/m 22,5 km/h (4 Bft) 97,87 %
24.04.2019 16:30 26,8 C 26,7 C 26,1 C 39 % 996,9 hPa 0,0 l/m 2 min 0 min 561 W/m 25,7 km/h (4 Bft) 98,11 %
24.04.2019 16:32 26,7 C 26,7 C 26,1 C 39 % 997,0 hPa 0,0 l/m 2 min 0 min 602 W/m 22,5 km/h (4 Bft) 98,00 %
24.04.2019 16:34 26,7 C 27,2 C 26,7 C 40 % 996,9 hPa 0,0 l/m 2 min 0 min 599 W/m 19,3 km/h (3 Bft) 95,74 %
24.04.2019 16:36 26,8 C 27,2 C 26,7 C 40 % 997,0 hPa 0,0 l/m 2 min 0 min 532 W/m 12,9 km/h (3 Bft) 100,00 %
24.04.2019 16:38 26,8 C 27,2 C 26,7 C 39 % 996,9 hPa 0,0 l/m 2 min 0 min 452 W/m 22,5 km/h (4 Bft) 100,00 %
24.04.2019 16:40 26,8 C 27,2 C 26,7 C 40 % 996,8 hPa 0,0 l/m 2 min 0 min 580 W/m 16,1 km/h (3 Bft) 100,00 %
24.04.2019 16:42 26,8 C 27,2 C 26,7 C 40 % 996,7 hPa 0,0 l/m 2 min 0 min 561 W/m 29,0 km/h (5 Bft) 100,00 %
24.04.2019 16:44 26,8 C 26,7 C 26,1 C 39 % 996,8 hPa 0,0 l/m 2 min 0 min 524 W/m 22,5 km/h (4 Bft) 97,87 %
24.04.2019 16:46 26,8 C 26,1 C 26,1 C 39 % 996,7 hPa 0,0 l/m 2 min 0 min 519 W/m 25,7 km/h (4 Bft) 97,96 %
24.04.2019 16:48 26,8 C 26,1 C 26,1 C 40 % 996,8 hPa 0,0 l/m 2 min 0 min 480 W/m 32,2 km/h (5 Bft) 100,00 %
24.04.2019 16:50 26,8 C 26,1 C 26,1 C 40 % 996,7 hPa 0,0 l/m 2 min 0 min 496 W/m 19,3 km/h (3 Bft) 100,00 %
24.04.2019 16:52 26,8 C 26,1 C 26,1 C 40 % 996,8 hPa 0,0 l/m 2 min 0 min 344 W/m 16,1 km/h (3 Bft) 100,00 %
24.04.2019 16:54 26,7 C 26,1 C 26,1 C 41 % 996,8 hPa 0,0 l/m 2 min 0 min 378 W/m 25,7 km/h (4 Bft) 97,96 %
24.04.2019 16:56 26,7 C 26,1 C 26,1 C 41 % 996,9 hPa 0,0 l/m 2 min 0 min 378 W/m 22,5 km/h (4 Bft) 100,00 %
24.04.2019 16:58 26,7 C 25,6 C 25,6 C 41 % 996,9 hPa 0,0 l/m 0 min 0 min 225 W/m 19,3 km/h (3 Bft) 100,00 %
24.04.2019 17:00 26,6 C 25,6 C 25,6 C 40 % 996,9 hPa 0,0 l/m 0 min 0 min 216 W/m 22,5 km/h (4 Bft) 100,00 %
24.04.2019 17:02 26,5 C 25,6 C 25,6 C 40 % 996,7 hPa 0,0 l/m 0 min 0 min 206 W/m 29,0 km/h (5 Bft) 97,87 %
24.04.2019 17:04 26,4 C 25,6 C 25,0 C 40 % 996,7 hPa 0,0 l/m 0 min 0 min 203 W/m 35,4 km/h (5 Bft) 100,00 %
24.04.2019 17:06 26,3 C 25,6 C 25,6 C 41 % 996,6 hPa 0,0 l/m 0 min 0 min 217 W/m 22,5 km/h (4 Bft) 100,00 %
24.04.2019 17:08 26,3 C 25,6 C 25,6 C 40 % 996,7 hPa 0,0 l/m 2 min 0 min 272 W/m 25,7 km/h (4 Bft) 100,00 %
24.04.2019 17:10 26,3 C 25,6 C 25,6 C 41 % 996,7 hPa 0,0 l/m 2 min 0 min 431 W/m 25,7 km/h (4 Bft) 100,00 %
24.04.2019 17:12 26,2 C 25,6 C 25,0 C 41 % 996,6 hPa 0,0 l/m 0 min 0 min 201 W/m 25,7 km/h (4 Bft) 100,00 %
24.04.2019 17:14 26,2 C 25,0 C 25,0 C 41 % 996,5 hPa 0,0 l/m 0 min 0 min 175 W/m 12,9 km/h (3 Bft) 97,87 %
24.04.2019 17:16 26,1 C 25,0 C 25,0 C 41 % 996,5 hPa 0,0 l/m 0 min 0 min 177 W/m 12,9 km/h (3 Bft) 98,11 %
24.04.2019 17:18 26,1 C 25,0 C 25,0 C 41 % 996,6 hPa 0,0 l/m 0 min 0 min 197 W/m 19,3 km/h (3 Bft) 100,00 %
24.04.2019 17:20 26,0 C 25,6 C 25,0 C 41 % 996,6 hPa 0,0 l/m 0 min 0 min 231 W/m 12,9 km/h (3 Bft) 100,00 %
24.04.2019 17:22 26,0 C 25,6 C 25,6 C 42 % 996,5 hPa 0,0 l/m 2 min 0 min 331 W/m 12,9 km/h (3 Bft) 100,00 %
24.04.2019 17:24 26,0 C 26,1 C 25,6 C 42 % 996,5 hPa 0,0 l/m 2 min 0 min 452 W/m 22,5 km/h (4 Bft) 100,00 %
24.04.2019 17:26 26,0 C 26,1 C 26,1 C 42 % 996,5 hPa 0,0 l/m 2 min 0 min 520 W/m 22,5 km/h (4 Bft) 100,00 %
24.04.2019 17:28 26,0 C 26,1 C 26,1 C 42 % 996,5 hPa 0,0 l/m 2 min 0 min 489 W/m 16,1 km/h (3 Bft) 100,00 %
24.04.2019 17:30 26,1 C 26,1 C 26,1 C 42 % 996,4 hPa 0,0 l/m 2 min 0 min 459 W/m 19,3 km/h (3 Bft) 100,00 %
24.04.2019 17:32 26,1 C 26,1 C 26,1 C 42 % 996,5 hPa 0,0 l/m 2 min 0 min 482 W/m 22,5 km/h (4 Bft) 100,00 %
24.04.2019 17:34 26,1 C 26,1 C 25,6 C 42 % 996,5 hPa 0,0 l/m 2 min 0 min 490 W/m 19,3 km/h (3 Bft) 97,87 %
24.04.2019 17:36 26,2 C 26,1 C 25,6 C 42 % 996,5 hPa 0,0 l/m 2 min 0 min 256 W/m 12,9 km/h (3 Bft) 100,00 %
24.04.2019 17:38 26,2 C 26,1 C 26,1 C 42 % 996,5 hPa 0,0 l/m 2 min 0 min 541 W/m 12,9 km/h (3 Bft) 100,00 %
24.04.2019 17:40 26,2 C 26,1 C 26,1 C 42 % 996,5 hPa 0,0 l/m 2 min 0 min 497 W/m 12,9 km/h (3 Bft) 97,87 %
24.04.2019 17:42 26,3 C 26,1 C 26,1 C 42 % 996,5 hPa 0,0 l/m 2 min 0 min 482 W/m 22,5 km/h (4 Bft) 100,00 %
24.04.2019 17:44 26,3 C 26,1 C 26,1 C 42 % 996,5 hPa 0,0 l/m 2 min 0 min 466 W/m 19,3 km/h (3 Bft) 100,00 %
24.04.2019 17:46 26,4 C 26,1 C 26,1 C 42 % 996,4 hPa 0,0 l/m 2 min 0 min 429 W/m 12,9 km/h (3 Bft) 100,00 %
24.04.2019 17:48 26,4 C 26,1 C 25,6 C 41 % 996,5 hPa 0,0 l/m 2 min 0 min 448 W/m 19,3 km/h (3 Bft) 100,00 %
24.04.2019 17:50 26,4 C 25,6 C 25,6 C 42 % 996,5 hPa 0,0 l/m 2 min 0 min 363 W/m 16,1 km/h (3 Bft) 97,87 %
24.04.2019 17:52 26,4 C 25,6 C 25,6 C 41 % 996,5 hPa 0,0 l/m 0 min 0 min 145 W/m 19,3 km/h (3 Bft) 97,83 %
24.04.2019 17:54 26,4 C 25,0 C 25,0 C 41 % 996,5 hPa 0,0 l/m 0 min 0 min 147 W/m 16,1 km/h (3 Bft) 100,00 %
24.04.2019 17:56 26,3 C 25,0 C 25,0 C 41 % 996,5 hPa 0,0 l/m 0 min 0 min 153 W/m 16,1 km/h (3 Bft) 100,00 %
24.04.2019 17:58 26,3 C 25,0 C 25,0 C 42 % 996,5 hPa 0,0 l/m 0 min 0 min 168 W/m 22,5 km/h (4 Bft) 98,15 %
24.04.2019 18:00 26,2 C 24,4 C 24,4 C 42 % 996,4 hPa 0,0 l/m 0 min 0 min 113 W/m 22,5 km/h (4 Bft) 97,83 %
24.04.2019 18:02 26,2 C 24,4 C 24,4 C 42 % 996,5 hPa 0,0 l/m 0 min 0 min 81 W/m 16,1 km/h (3 Bft) 95,74 %
24.04.2019 18:04 26,1 C 24,4 C 24,4 C 42 % 996,5 hPa 0,0 l/m 0 min 0 min 75 W/m 12,9 km/h (3 Bft) 97,87 %
24.04.2019 18:08 25,9 C 23,9 C 23,9 C 42 % 996,4 hPa 0,0 l/m 0 min 0 min 76 W/m 16,1 km/h (3 Bft) 97,65 %
24.04.2019 18:10 25,8 C 23,9 C 23,9 C 42 % 996,4 hPa 0,0 l/m 0 min 0 min 81 W/m 12,9 km/h (3 Bft) 94,00 %
24.04.2019 18:12 25,7 C 23,9 C 23,9 C 43 % 996,4 hPa 0,0 l/m 0 min 0 min 82 W/m 19,3 km/h (3 Bft) 97,87 %
24.04.2019 18:14 25,6 C 23,9 C 23,9 C 43 % 996,5 hPa 0,0 l/m 0 min 0 min 82 W/m 12,9 km/h (3 Bft) 97,83 %
24.04.2019 18:16 25,5 C 23,9 C 23,9 C 43 % 996,4 hPa 0,0 l/m 0 min 0 min 82 W/m 16,1 km/h (3 Bft) 97,87 %
24.04.2019 18:18 25,4 C 23,9 C 23,9 C 43 % 996,4 hPa 0,0 l/m 0 min 0 min 74 W/m 12,9 km/h (3 Bft) 95,83 %
24.04.2019 18:20 25,3 C 23,9 C 23,3 C 44 % 996,3 hPa 0,0 l/m 0 min 0 min 62 W/m 16,1 km/h (3 Bft) 97,83 %
24.04.2019 18:22 25,3 C 23,9 C 23,3 C 44 % 996,3 hPa 0,0 l/m 0 min 0 min 49 W/m 9,7 km/h (2 Bft) 95,74 %
24.04.2019 18:24 25,2 C 23,3 C 23,3 C 44 % 996,3 hPa 0,0 l/m 0 min 0 min 41 W/m 12,9 km/h (3 Bft) 93,18 %
24.04.2019 18:26 25,1 C 23,3 C 23,3 C 44 % 996,4 hPa 0,0 l/m 0 min 0 min 40 W/m 9,7 km/h (2 Bft) 93,48 %
24.04.2019 18:28 25,1 C 23,3 C 23,3 C 44 % 996,4 hPa 0,0 l/m 0 min 0 min 42 W/m 9,7 km/h (2 Bft) 93,62 %
24.04.2019 18:30 25,0 C 23,3 C 23,3 C 45 % 996,3 hPa 0,0 l/m 0 min 0 min 51 W/m 9,7 km/h (2 Bft) 94,00 %
24.04.2019 18:32 24,9 C 23,3 C 23,3 C 45 % 996,3 hPa 0,0 l/m 0 min 0 min 61 W/m 12,9 km/h (3 Bft) 93,62 %
24.04.2019 18:34 24,9 C 23,3 C 23,3 C 45 % 996,3 hPa 0,0 l/m 0 min 0 min 69 W/m 6,4 km/h (2 Bft) 91,49 %
24.04.2019 18:36 24,8 C 23,3 C 23,3 C 45 % 996,3 hPa 0,0 l/m 0 min 0 min 68 W/m 19,3 km/h (3 Bft) 93,62 %
24.04.2019 18:38 24,7 C 23,3 C 23,3 C 46 % 996,3 hPa 0,0 l/m 0 min 0 min 61 W/m 22,5 km/h (4 Bft) 93,62 %
24.04.2019 18:40 24,7 C 22,8 C 22,8 C 46 % 996,3 hPa 0,0 l/m 0 min 0 min 54 W/m 12,9 km/h (3 Bft) 91,49 %
24.04.2019 18:42 24,6 C 22,8 C 22,8 C 46 % 996,4 hPa 0,0 l/m 0 min 0 min 54 W/m 19,3 km/h (3 Bft) 93,62 %
24.04.2019 18:44 24,4 C 22,8 C 22,8 C 46 % 996,4 hPa 0,0 l/m 0 min 0 min 61 W/m 16,1 km/h (3 Bft) 90,70 %
24.04.2019 18:46 24,3 C 22,8 C 22,8 C 46 % 996,4 hPa 0,0 l/m 0 min 0 min 74 W/m 9,7 km/h (2 Bft) 93,62 %
24.04.2019 18:48 24,2 C 22,8 C 22,8 C 47 % 996,3 hPa 0,0 l/m 0 min 0 min 88 W/m 9,7 km/h (2 Bft) 93,62 %
24.04.2019 18:50 24,1 C 22,8 C 22,8 C 47 % 996,2 hPa 0,0 l/m 0 min 0 min 96 W/m 16,1 km/h (3 Bft) 91,84 %
24.04.2019 18:52 23,9 C 22,8 C 22,8 C 47 % 996,3 hPa 0,0 l/m 0 min 0 min 95 W/m 25,7 km/h (4 Bft) 93,62 %
24.04.2019 18:54 23,8 C 22,2 C 22,2 C 47 % 996,3 hPa 0,0 l/m 0 min 0 min 88 W/m 22,5 km/h (4 Bft) 95,74 %
24.04.2019 18:56 23,7 C 22,2 C 22,2 C 47 % 996,3 hPa 0,0 l/m 0 min 0 min 80 W/m 22,5 km/h (4 Bft) 93,62 %
24.04.2019 18:58 23,7 C 22,2 C 22,2 C 48 % 996,3 hPa 0,0 l/m 0 min 0 min 75 W/m 12,9 km/h (3 Bft) 95,74 %
24.04.2019 19:00 23,6 C 22,2 C 22,2 C 48 % 996,3 hPa 0,0 l/m 0 min 0 min 58 W/m 6,4 km/h (2 Bft) 93,62 %
24.04.2019 19:02 23,5 C 22,2 C 22,2 C 48 % 996,4 hPa 0,0 l/m 0 min 0 min 37 W/m 9,7 km/h (2 Bft) 93,62 %
24.04.2019 19:04 23,4 C 21,7 C 21,7 C 48 % 996,4 hPa 0,0 l/m 0 min 0 min 26 W/m 16,1 km/h (3 Bft) 95,74 %
24.04.2019 19:06 23,3 C 21,7 C 21,7 C 48 % 996,6 hPa 0,0 l/m 0 min 0 min 19 W/m 22,5 km/h (4 Bft) 92,73 %
24.04.2019 19:08 23,2 C 21,7 C 21,7 C 48 % 996,7 hPa 0,0 l/m 0 min 0 min 12 W/m 32,2 km/h (5 Bft) 97,14 %
24.04.2019 19:10 23,1 C 21,1 C 21,7 C 48 % 996,7 hPa 0,0 l/m 0 min 0 min 7 W/m 22,5 km/h (4 Bft) 97,87 %
24.04.2019 19:12 23,0 C 21,1 C 21,7 C 48 % 996,7 hPa 0,0 l/m 0 min 0 min 5 W/m 9,7 km/h (2 Bft) 97,96 %
24.04.2019 19:14 22,9 C 21,1 C 21,7 C 48 % 996,8 hPa 0,0 l/m 0 min 0 min 5 W/m 22,5 km/h (4 Bft) 97,92 %
24.04.2019 19:16 22,8 C 21,1 C 21,1 C 48 % 996,9 hPa 0,0 l/m 0 min 0 min 5 W/m 25,7 km/h (4 Bft) 97,87 %
24.04.2019 19:18 22,7 C 21,1 C 21,1 C 48 % 997,0 hPa 0,0 l/m 0 min 0 min 0 W/m 32,2 km/h (5 Bft) 100,00 %
24.04.2019 19:20 22,3 C 19,4 C 20,0 C 50 % 997,0 hPa 0,0 l/m 0 min 2 min 0 W/m 67,6 km/h (8 Bft) 100,00 %
24.04.2019 19:22 21,7 C 18,3 C 18,9 C 54 % 997,7 hPa 0,0 l/m 0 min 2 min 0 W/m 48,3 km/h (6 Bft) 100,00 %
24.04.2019 19:24 21,2 C 16,7 C 17,2 C 56 % 998,3 hPa 0,0 l/m 0 min 2 min 0 W/m 38,6 km/h (5 Bft) 100,00 %
24.04.2019 19:26 20,8 C 15,0 C 15,0 C 59 % 999,0 hPa 0,0 l/m 0 min 2 min 0 W/m 32,2 km/h (5 Bft) 100,00 %
24.04.2019 19:28 20,4 C 14,4 C 13,9 C 62 % 999,4 hPa 0,0 l/m 0 min 2 min 0 W/m 41,8 km/h (6 Bft) 100,00 %
24.04.2019 19:30 19,8 C 13,3 C 13,3 C 65 % 999,7 hPa 0,0 l/m 0 min 2 min 0 W/m 45,1 km/h (6 Bft) 100,00 %
24.04.2019 19:32 19,3 C 12,8 C 12,8 C 67 % 999,9 hPa 0,2 l/m 0 min 2 min 0 W/m 51,5 km/h (7 Bft) 100,00 %
24.04.2019 19:34 18,7 C 12,8 C 12,8 C 71 % 999,7 hPa 0,2 l/m 0 min 2 min 0 W/m 29,0 km/h (5 Bft) 100,00 %
24.04.2019 19:36 18,2 C 12,2 C 12,2 C 72 % 999,9 hPa 0,0 l/m 0 min 2 min 0 W/m 41,8 km/h (6 Bft) 95,74 %
24.04.2019 19:38 17,7 C 12,2 C 12,2 C 74 % 1000,0 hPa 0,4 l/m 0 min 2 min 0 W/m 45,1 km/h (6 Bft) 100,00 %
24.04.2019 19:40 17,3 C 12,2 C 12,2 C 77 % 1000,2 hPa 0,6 l/m 0 min 2 min 0 W/m 41,8 km/h (6 Bft) 100,00 %
24.04.2019 19:42 16,8 C 12,2 C 11,7 C 78 % 1000,4 hPa 0,8 l/m 0 min 2 min 0 W/m 61,2 km/h (7 Bft) 100,00 %
24.04.2019 19:44 16,3 C 11,7 C 11,7 C 79 % 1000,6 hPa 0,4 l/m 0 min 2 min 0 W/m 48,3 km/h (6 Bft) 100,00 %
24.04.2019 19:46 15,7 C 11,7 C 11,7 C 80 % 1000,4 hPa 0,4 l/m 0 min 2 min 0 W/m 67,6 km/h (8 Bft) 100,00 %
24.04.2019 19:48 15,2 C 11,7 C 11,7 C 82 % 1000,2 hPa 0,2 l/m 0 min 2 min 0 W/m 54,7 km/h (7 Bft) 100,00 %
24.04.2019 19:50 14,8 C 11,7 C 11,7 C 83 % 1000,2 hPa 0,2 l/m 0 min 2 min 0 W/m 38,6 km/h (5 Bft) 100,00 %
24.04.2019 19:52 14,5 C 11,7 C 11,7 C 84 % 1000,5 hPa 0,2 l/m 0 min 2 min 0 W/m 41,8 km/h (6 Bft) 100,00 %
24.04.2019 19:54 14,3 C 11,7 C 11,7 C 85 % 1000,8 hPa 0,0 l/m 0 min 2 min 0 W/m 22,5 km/h (4 Bft) 100,00 %
24.04.2019 19:56 14,2 C 11,7 C 11,7 C 87 % 1000,9 hPa 0,2 l/m 0 min 2 min 0 W/m 29,0 km/h (5 Bft) 100,00 %
24.04.2019 19:58 14,0 C 11,1 C 11,1 C 87 % 1000,9 hPa 0,2 l/m 0 min 2 min 0 W/m 48,3 km/h (6 Bft) 100,00 %
24.04.2019 20:00 13,8 C 11,1 C 11,1 C 87 % 1001,0 hPa 0,2 l/m 0 min 2 min 0 W/m 45,1 km/h (6 Bft) 97,87 %
24.04.2019 20:02 13,6 C 11,1 C 11,1 C 88 % 1001,0 hPa 0,2 l/m 0 min 2 min 0 W/m 41,8 km/h (6 Bft) 97,87 %
24.04.2019 20:04 13,4 C 11,1 C 11,1 C 88 % 1001,0 hPa 0,0 l/m 0 min 2 min 0 W/m 38,6 km/h (5 Bft) 100,00 %
24.04.2019 20:06 13,3 C 11,1 C 11,1 C 89 % 1000,8 hPa 0,4 l/m 0 min 2 min 0 W/m 51,5 km/h (7 Bft) 100,00 %
24.04.2019 20:08 13,2 C 11,1 C 11,1 C 89 % 1000,5 hPa 0,0 l/m 0 min 2 min 0 W/m 41,8 km/h (6 Bft) 100,00 %
24.04.2019 20:10 13,1 C 10,6 C 10,6 C 89 % 1000,1 hPa 0,2 l/m 0 min 2 min 0 W/m 38,6 km/h (5 Bft) 97,87 %
24.04.2019 20:12 12,9 C 10,6 C 10,6 C 89 % 999,8 hPa 0,2 l/m 0 min 2 min 0 W/m 25,7 km/h (4 Bft) 97,83 %
24.04.2019 20:14 12,8 C 10,6 C 10,6 C 89 % 1000,0 hPa 0,2 l/m 0 min 2 min 0 W/m 32,2 km/h (5 Bft) 100,00 %
24.04.2019 20:16 12,7 C 10,6 C 10,6 C 89 % 1000,1 hPa 0,0 l/m 0 min 2 min 0 W/m 29,0 km/h (5 Bft) 100,00 %
24.04.2019 20:18 12,5 C 10,6 C 10,6 C 89 % 1000,3 hPa 0,2 l/m 0 min 2 min 0 W/m 32,2 km/h (5 Bft) 100,00 %
24.04.2019 20:20 12,4 C 10,0 C 10,0 C 89 % 1000,4 hPa 0,0 l/m 0 min 2 min 0 W/m 29,0 km/h (5 Bft) 100,00 %
24.04.2019 20:22 12,4 C 10,0 C 10,6 C 90 % 1000,5 hPa 0,0 l/m 0 min 2 min 0 W/m 19,3 km/h (3 Bft) 100,00 %
24.04.2019 20:24 12,3 C 10,0 C 10,6 C 90 % 1000,6 hPa 0,0 l/m 0 min 2 min 0 W/m 32,2 km/h (5 Bft) 100,00 %
24.04.2019 20:26 12,2 C 10,0 C 10,0 C 90 % 1000,8 hPa 0,2 l/m 0 min 2 min 0 W/m 29,0 km/h (5 Bft) 97,87 %
24.04.2019 20:28 12,2 C 10,0 C 10,0 C 90 % 1000,7 hPa 0,2 l/m 0 min 2 min 0 W/m 22,5 km/h (4 Bft) 97,83 %
24.04.2019 20:30 12,1 C 10,0 C 10,0 C 90 % 1000,9 hPa 0,0 l/m 0 min 2 min 0 W/m 22,5 km/h (4 Bft) 100,00 %
24.04.2019 20:32 12,1 C 10,0 C 10,0 C 90 % 1000,8 hPa 0,0 l/m 0 min 2 min 0 W/m 29,0 km/h (5 Bft) 100,00 %
24.04.2019 20:34 12,1 C 10,0 C 10,0 C 90 % 1000,8 hPa 0,0 l/m 0 min 2 min 0 W/m 22,5 km/h (4 Bft) 100,00 %
24.04.2019 20:36 12,1 C 10,0 C 10,0 C 90 % 1000,9 hPa 0,0 l/m 0 min 2 min 0 W/m 22,5 km/h (4 Bft) 100,00 %
24.04.2019 20:38 12,0 C 10,6 C 10,6 C 90 % 1001,0 hPa 0,0 l/m 0 min 2 min 0 W/m 16,1 km/h (3 Bft) 100,00 %
24.04.2019 20:40 12,0 C 10,6 C 10,6 C 90 % 1001,2 hPa 0,0 l/m 0 min 2 min 0 W/m 19,3 km/h (3 Bft) 100,00 %
24.04.2019 20:42 12,0 C 10,6 C 10,0 C 90 % 1001,4 hPa 0,0 l/m 0 min 2 min 0 W/m 25,7 km/h (4 Bft) 100,00 %
24.04.2019 20:44 11,9 C 10,6 C 10,0 C 90 % 1001,6 hPa 0,0 l/m 0 min 2 min 0 W/m 22,5 km/h (4 Bft) 100,00 %
24.04.2019 20:46 11,9 C 10,6 C 10,0 C 90 % 1001,7 hPa 0,0 l/m 0 min 2 min 0 W/m 29,0 km/h (5 Bft) 97,87 %
24.04.2019 20:48 11,9 C 10,6 C 10,0 C 90 % 1001,7 hPa 0,0 l/m 0 min 2 min 0 W/m 29,0 km/h (5 Bft) 97,87 %
24.04.2019 20:50 11,9 C 10,0 C 10,0 C 90 % 1001,9 hPa 0,0 l/m 0 min 2 min 0 W/m 25,7 km/h (4 Bft) 100,00 %
24.04.2019 20:52 11,9 C 10,6 C 10,0 C 90 % 1002,0 hPa 0,0 l/m 0 min 2 min 0 W/m 22,5 km/h (4 Bft) 100,00 %
24.04.2019 20:54 11,8 C 10,0 C 10,0 C 90 % 1002,2 hPa 0,0 l/m 0 min 2 min 0 W/m 35,4 km/h (5 Bft) 97,87 %
24.04.2019 20:56 11,8 C 10,0 C 10,0 C 90 % 1002,3 hPa 0,0 l/m 0 min 2 min 0 W/m 29,0 km/h (5 Bft) 97,87 %
24.04.2019 20:58 11,8 C 10,0 C 10,0 C 90 % 1002,4 hPa 0,0 l/m 0 min 2 min 0 W/m 19,3 km/h (3 Bft) 95,65 %
24.04.2019 21:00 11,8 C 10,0 C 10,0 C 90 % 1002,5 hPa 0,0 l/m 0 min 2 min 0 W/m 19,3 km/h (3 Bft) 98,00 %
24.04.2019 21:02 11,8 C 10,0 C 10,0 C 90 % 1002,5 hPa 0,0 l/m 0 min 2 min 0 W/m 19,3 km/h (3 Bft) 95,83 %
24.04.2019 21:04 11,8 C 10,0 C 10,0 C 90 % 1002,4 hPa 0,2 l/m 0 min 2 min 0 W/m 16,1 km/h (3 Bft) 97,83 %
24.04.2019 21:06 11,8 C 10,0 C 10,0 C 90 % 1002,2 hPa 0,0 l/m 0 min 2 min 0 W/m 22,5 km/h (4 Bft) 98,21 %
24.04.2019 21:08 11,8 C 10,0 C 9,4 C 90 % 1002,2 hPa 0,0 l/m 0 min 2 min 0 W/m 19,3 km/h (3 Bft) 97,14 %
24.04.2019 21:10 11,7 C 10,0 C 9,4 C 90 % 1002,3 hPa 0,0 l/m 0 min 2 min 0 W/m 22,5 km/h (4 Bft) 97,96 %
24.04.2019 21:12 11,7 C 10,0 C 9,4 C 91 % 1002,4 hPa 0,0 l/m 0 min 2 min 0 W/m 25,7 km/h (4 Bft) 97,92 %
24.04.2019 21:14 11,7 C 9,4 C 9,4 C 90 % 1002,4 hPa 0,2 l/m 0 min 2 min 0 W/m 25,7 km/h (4 Bft) 93,62 %
24.04.2019 21:16 11,7 C 9,4 C 9,4 C 90 % 1002,4 hPa 0,0 l/m 0 min 2 min 0 W/m 19,3 km/h (3 Bft) 93,02 %
24.04.2019 21:18 11,6 C 9,4 C 9,4 C 91 % 1002,5 hPa 0,0 l/m 0 min 2 min 0 W/m 22,5 km/h (4 Bft) 96,00 %
24.04.2019 21:20 11,6 C 9,4 C 9,4 C 91 % 1002,6 hPa 0,0 l/m 0 min 2 min 0 W/m 19,3 km/h (3 Bft) 93,62 %
24.04.2019 21:22 11,6 C 9,4 C 9,4 C 91 % 1002,6 hPa 0,2 l/m 0 min 2 min 0 W/m 29,0 km/h (5 Bft) 95,65 %
24.04.2019 21:24 11,5 C 9,4 C 9,4 C 91 % 1002,7 hPa 0,0 l/m 0 min 2 min 0 W/m 29,0 km/h (5 Bft) 95,74 %
24.04.2019 21:26 11,5 C 9,4 C 9,4 C 91 % 1002,8 hPa 0,0 l/m 0 min 2 min 0 W/m 16,1 km/h (3 Bft) 93,62 %
24.04.2019 21:28 11,4 C 9,4 C 9,4 C 91 % 1002,9 hPa 0,0 l/m 0 min 2 min 0 W/m 19,3 km/h (3 Bft) 93,62 %
24.04.2019 21:30 11,4 C 9,4 C 9,4 C 91 % 1002,9 hPa 0,2 l/m 0 min 2 min 0 W/m 16,1 km/h (3 Bft) 95,74 %
24.04.2019 21:32 11,4 C 9,4 C 9,4 C 91 % 1003,1 hPa 0,0 l/m 0 min 2 min 0 W/m 16,1 km/h (3 Bft) 95,74 %
24.04.2019 21:34 11,4 C 9,4 C 9,4 C 91 % 1003,1 hPa 0,0 l/m 0 min 2 min 0 W/m 16,1 km/h (3 Bft) 95,74 %
24.04.2019 21:36 11,4 C 9,4 C 9,4 C 91 % 1003,1 hPa 0,2 l/m 0 min 2 min 0 W/m 19,3 km/h (3 Bft) 93,62 %
24.04.2019 21:38 11,3 C 9,4 C 9,4 C 91 % 1003,1 hPa 0,2 l/m 0 min 2 min 0 W/m 22,5 km/h (4 Bft) 95,35 %
24.04.2019 21:40 11,3 C 9,4 C 9,4 C 91 % 1003,1 hPa 0,0 l/m 0 min 2 min 0 W/m 12,9 km/h (3 Bft) 95,74 %
24.04.2019 21:42 11,3 C 9,4 C 9,4 C 92 % 1003,0 hPa 0,2 l/m 0 min 2 min 0 W/m 16,1 km/h (3 Bft) 98,00 %
24.04.2019 21:44 11,3 C 9,4 C 9,4 C 92 % 1003,1 hPa 0,0 l/m 0 min 2 min 0 W/m 12,9 km/h (3 Bft) 95,74 %
24.04.2019 21:46 11,3 C 9,4 C 9,4 C 91 % 1003,0 hPa 0,2 l/m 0 min 2 min 0 W/m 9,7 km/h (2 Bft) 97,87 %
24.04.2019 21:48 11,2 C 9,4 C 9,4 C 92 % 1003,0 hPa 0,0 l/m 0 min 2 min 0 W/m 12,9 km/h (3 Bft) 97,87 %
24.04.2019 21:50 11,2 C 9,4 C 9,4 C 92 % 1003,2 hPa 0,2 l/m 0 min 2 min 0 W/m 16,1 km/h (3 Bft) 95,65 %
24.04.2019 21:52 11,2 C 9,4 C 9,4 C 92 % 1003,2 hPa 0,0 l/m 0 min 2 min 0 W/m 12,9 km/h (3 Bft) 97,87 %
24.04.2019 21:54 11,2 C 9,4 C 9,4 C 92 % 1003,3 hPa 0,2 l/m 0 min 2 min 0 W/m 16,1 km/h (3 Bft) 97,87 %
24.04.2019 21:56 11,2 C 9,4 C 9,4 C 92 % 1003,2 hPa 0,0 l/m 0 min 2 min 0 W/m 12,9 km/h (3 Bft) 97,87 %
24.04.2019 21:58 11,1 C 9,4 C 9,4 C 92 % 1003,1 hPa 0,2 l/m 0 min 2 min 0 W/m 16,1 km/h (3 Bft) 95,74 %
24.04.2019 22:00 11,1 C 9,4 C 9,4 C 92 % 1003,3 hPa 0,0 l/m 0 min 2 min 0 W/m 16,1 km/h (3 Bft) 97,87 %
24.04.2019 22:02 11,1 C 9,4 C 8,9 C 92 % 1003,4 hPa 0,0 l/m 0 min 2 min 0 W/m 12,9 km/h (3 Bft) 93,48 %
24.04.2019 22:04 11,1 C 9,4 C 9,4 C 92 % 1003,5 hPa 0,0 l/m 0 min 2 min 0 W/m 22,5 km/h (4 Bft) 100,00 %
24.04.2019 22:06 11,0 C 9,4 C 8,9 C 92 % 1003,5 hPa 0,2 l/m 0 min 2 min 0 W/m 22,5 km/h (4 Bft) 97,87 %
24.04.2019 22:08 11,0 C 9,4 C 9,4 C 92 % 1003,5 hPa 0,0 l/m 0 min 2 min 0 W/m 25,7 km/h (4 Bft) 95,74 %
24.04.2019 22:10 11,0 C 9,4 C 9,4 C 92 % 1003,5 hPa 0,0 l/m 0 min 2 min 0 W/m 25,7 km/h (4 Bft) 97,87 %
24.04.2019 22:12 10,9 C 9,4 C 8,9 C 92 % 1003,5 hPa 0,2 l/m 0 min 2 min 0 W/m 25,7 km/h (4 Bft) 97,87 %
24.04.2019 22:14 10,9 C 9,4 C 8,9 C 93 % 1003,3 hPa 0,0 l/m 0 min 2 min 0 W/m 12,9 km/h (3 Bft) 95,65 %
24.04.2019 22:16 10,9 C 8,9 C 8,9 C 93 % 1003,2 hPa 0,0 l/m 0 min 2 min 0 W/m 16,1 km/h (3 Bft) 93,62 %
24.04.2019 22:18 10,8 C 8,9 C 8,9 C 93 % 1003,2 hPa 0,0 l/m 0 min 2 min 0 W/m 16,1 km/h (3 Bft) 97,96 %
24.04.2019 22:20 10,8 C 8,9 C 8,9 C 93 % 1003,3 hPa 0,2 l/m 0 min 2 min 0 W/m 16,1 km/h (3 Bft) 97,87 %
24.04.2019 22:22 10,8 C 8,9 C 8,9 C 93 % 1003,3 hPa 0,0 l/m 0 min 2 min 0 W/m 22,5 km/h (4 Bft) 97,87 %
24.04.2019 22:24 10,8 C 8,9 C 8,9 C 93 % 1003,3 hPa 0,0 l/m 0 min 2 min 0 W/m 25,7 km/h (4 Bft) 97,87 %
24.04.2019 22:26 10,7 C 8,9 C 8,9 C 93 % 1003,3 hPa 0,0 l/m 0 min 2 min 0 W/m 16,1 km/h (3 Bft) 95,74 %
24.04.2019 22:28 10,7 C 8,9 C 8,9 C 93 % 1003,3 hPa 0,2 l/m 0 min 2 min 0 W/m 16,1 km/h (3 Bft) 93,62 %
24.04.2019 22:30 10,7 C 8,9 C 8,9 C 93 % 1003,4 hPa 0,0 l/m 0 min 2 min 0 W/m 22,5 km/h (4 Bft) 97,83 %
24.04.2019 22:32 10,7 C 8,9 C 8,9 C 93 % 1003,4 hPa 0,0 l/m 0 min 2 min 0 W/m 16,1 km/h (3 Bft) 97,87 %
24.04.2019 22:34 10,6 C 8,9 C 8,9 C 93 % 1003,3 hPa 0,0 l/m 0 min 2 min 0 W/m 22,5 km/h (4 Bft) 97,87 %
24.04.2019 22:36 10,6 C 8,9 C 8,9 C 93 % 1003,3 hPa 0,2 l/m 0 min 2 min 0 W/m 25,7 km/h (4 Bft) 95,74 %
24.04.2019 22:38 10,6 C 8,9 C 8,9 C 93 % 1003,2 hPa 0,0 l/m 0 min 2 min 0 W/m 22,5 km/h (4 Bft) 97,87 %
24.04.2019 22:40 10,5 C 8,9 C 8,9 C 93 % 1003,0 hPa 0,2 l/m 0 min 2 min 0 W/m 16,1 km/h (3 Bft) 97,87 %
24.04.2019 22:42 10,5 C 8,9 C 8,9 C 93 % 1003,0 hPa 0,0 l/m 0 min 2 min 0 W/m 25,7 km/h (4 Bft) 97,83 %
24.04.2019 22:44 10,4 C 8,9 C 8,9 C 93 % 1002,9 hPa 0,2 l/m 0 min 2 min 0 W/m 22,5 km/h (4 Bft) 97,87 %
24.04.2019 22:46 10,4 C 8,9 C 8,9 C 93 % 1002,8 hPa 0,0 l/m 0 min 2 min 0 W/m 25,7 km/h (4 Bft) 97,87 %
24.04.2019 22:48 10,4 C 8,9 C 8,3 C 93 % 1002,7 hPa 0,0 l/m 0 min 2 min 0 W/m 19,3 km/h (3 Bft) 97,87 %
24.04.2019 22:50 10,4 C 8,9 C 8,3 C 93 % 1002,6 hPa 0,0 l/m 0 min 2 min 0 W/m 22,5 km/h (4 Bft) 97,87 %
24.04.2019 22:52 10,3 C 8,9 C 8,9 C 93 % 1002,5 hPa 0,0 l/m 0 min 2 min 0 W/m 12,9 km/h (3 Bft) 97,87 %
24.04.2019 22:54 10,3 C 8,9 C 8,3 C 93 % 1002,4 hPa 0,0 l/m 0 min 2 min 0 W/m 16,1 km/h (3 Bft) 97,83 %
24.04.2019 22:56 10,3 C 8,9 C 8,3 C 93 % 1002,5 hPa 0,0 l/m 0 min 0 min 0 W/m 16,1 km/h (3 Bft) 100,00 %
24.04.2019 22:58 10,3 C 8,9 C 8,3 C 93 % 1002,5 hPa 0,0 l/m 0 min 0 min 0 W/m 19,3 km/h (3 Bft) 95,74 %
24.04.2019 23:00 10,2 C 8,9 C 8,3 C 93 % 1002,5 hPa 0,0 l/m 0 min 0 min 0 W/m 16,1 km/h (3 Bft) 97,87 %
24.04.2019 23:02 10,2 C 8,9 C 8,3 C 94 % 1002,6 hPa 0,0 l/m 0 min 0 min 0 W/m 16,1 km/h (3 Bft) 97,87 %
24.04.2019 23:04 10,2 C 8,9 C 8,3 C 94 % 1002,7 hPa 0,0 l/m 0 min 0 min 0 W/m 12,9 km/h (3 Bft) 97,87 %
24.04.2019 23:06 10,2 C 8,9 C 8,3 C 94 % 1002,8 hPa 0,0 l/m 0 min 0 min 0 W/m 16,1 km/h (3 Bft) 97,83 %
24.04.2019 23:08 10,2 C 8,9 C 8,3 C 94 % 1002,8 hPa 0,0 l/m 0 min 0 min 0 W/m 12,9 km/h (3 Bft) 97,87 %
24.04.2019 23:10 10,2 C 8,9 C 8,3 C 94 % 1002,8 hPa 0,0 l/m 0 min 0 min 0 W/m 19,3 km/h (3 Bft) 95,74 %
24.04.2019 23:12 10,1 C 8,9 C 8,3 C 94 % 1002,8 hPa 0,0 l/m 0 min 0 min 0 W/m 16,1 km/h (3 Bft) 95,74 %
24.04.2019 23:14 10,1 C 8,9 C 8,3 C 94 % 1002,8 hPa 0,0 l/m 0 min 0 min 0 W/m 22,5 km/h (4 Bft) 97,87 %
24.04.2019 23:16 10,1 C 8,9 C 8,3 C 94 % 1002,8 hPa 0,0 l/m 0 min 0 min 0 W/m 22,5 km/h (4 Bft) 100,00 %
24.04.2019 23:18 10,1 C 8,9 C 8,3 C 94 % 1002,9 hPa 0,0 l/m 0 min 0 min 0 W/m 19,3 km/h (3 Bft) 97,83 %
24.04.2019 23:20 10,0 C 8,9 C 8,3 C 94 % 1003,0 hPa 0,0 l/m 0 min 0 min 0 W/m 16,1 km/h (3 Bft) 97,87 %
24.04.2019 23:22 10,0 C 8,9 C 8,3 C 94 % 1002,9 hPa 0,0 l/m 0 min 0 min 0 W/m 29,0 km/h (5 Bft) 97,87 %
24.04.2019 23:24 10,0 C 8,9 C 8,3 C 94 % 1002,8 hPa 0,0 l/m 0 min 0 min 0 W/m 12,9 km/h (3 Bft) 95,74 %
24.04.2019 23:26 10,0 C 8,9 C 8,3 C 94 % 1002,9 hPa 0,0 l/m 0 min 0 min 0 W/m 16,1 km/h (3 Bft) 97,87 %
24.04.2019 23:28 10,0 C 8,9 C 8,3 C 94 % 1002,9 hPa 0,0 l/m 0 min 0 min 0 W/m 16,1 km/h (3 Bft) 95,65 %
24.04.2019 23:30 9,9 C 8,9 C 8,3 C 94 % 1002,9 hPa 0,0 l/m 0 min 0 min 0 W/m 29,0 km/h (5 Bft) 97,87 %
24.04.2019 23:32 9,9 C 8,9 C 8,3 C 94 % 1002,9 hPa 0,0 l/m 0 min 0 min 0 W/m 16,1 km/h (3 Bft) 97,87 %
24.04.2019 23:34 9,9 C 8,9 C 8,3 C 94 % 1003,0 hPa 0,0 l/m 0 min 0 min 0 W/m 12,9 km/h (3 Bft) 97,87 %
24.04.2019 23:36 9,9 C 8,9 C 8,3 C 94 % 1003,0 hPa 0,0 l/m 0 min 0 min 0 W/m 19,3 km/h (3 Bft) 97,87 %
24.04.2019 23:38 9,9 C 8,9 C 8,3 C 94 % 1003,1 hPa 0,0 l/m 0 min 0 min 0 W/m 25,7 km/h (4 Bft) 97,87 %
24.04.2019 23:40 9,9 C 8,9 C 8,3 C 94 % 1003,0 hPa 0,0 l/m 0 min 0 min 0 W/m 25,7 km/h (4 Bft) 95,65 %
24.04.2019 23:42 9,9 C 8,9 C 8,3 C 94 % 1003,0 hPa 0,0 l/m 0 min 0 min 0 W/m 29,0 km/h (5 Bft) 97,87 %
24.04.2019 23:44 9,9 C 8,9 C 8,3 C 94 % 1002,9 hPa 0,0 l/m 0 min 0 min 0 W/m 22,5 km/h (4 Bft) 97,87 %
24.04.2019 23:46 9,9 C 8,9 C 8,9 C 94 % 1002,9 hPa 0,0 l/m 0 min 0 min 0 W/m 16,1 km/h (3 Bft) 95,74 %
24.04.2019 23:48 9,9 C 8,9 C 8,3 C 94 % 1002,9 hPa 0,0 l/m 0 min 0 min 0 W/m 29,0 km/h (5 Bft) 97,87 %
24.04.2019 23:50 9,9 C 8,9 C 8,3 C 94 % 1002,8 hPa 0,0 l/m 0 min 0 min 0 W/m 16,1 km/h (3 Bft) 95,74 %
24.04.2019 23:52 9,9 C 8,9 C 8,3 C 94 % 1002,9 hPa 0,0 l/m 0 min 0 min 0 W/m 19,3 km/h (3 Bft) 97,83 %
24.04.2019 23:54 9,9 C 8,9 C 8,9 C 94 % 1002,9 hPa 0,0 l/m 0 min 0 min 0 W/m 35,4 km/h (5 Bft) 97,87 %
24.04.2019 23:56 9,9 C 8,9 C 8,9 C 94 % 1002,8 hPa 0,0 l/m 0 min 0 min 0 W/m 22,5 km/h (4 Bft) 95,74 %
24.04.2019 23:58 10,0 C 8,9 C 8,9 C 94 % 1002,8 hPa 0,0 l/m 0 min 0 min 0 W/m 25,7 km/h (4 Bft) 97,87 %
_ Min-Zeit 23:30 22:16 22:48 14:32 00:00 - - - - 00:38 00:02
Minimum _ 9,9 C 8,9 C 8,3 C 39 % 994,9 hPa - - - - 3,2 km/h (1 Bft) 9,52 %
_ Max-Zeit 15:16 13:44 13:18 23:02 22:04 19:42 12:08 06:38 15:00 19:20 00:34
Maximum _ 27,1 C 30,6 C 33,3 C 94 % 1003,5 hPa 0,8 l/m 4 min 2 min 877 W/m 67,6 km/h
O-SO (8 Bft)
100,00 %
Durchschnitt _ 18,6 C 18,7 C 18,5 C 64 % 997,7 hPa #9,6 l/m #7:32 h #3:56 h 429 W/m 18,9 km/h (3 Bft) 97,33 %
© 2019 W. Hausmann